<?xml version="1.0" encoding="UTF-8" standalone="no" ?>
<gpx xmlns="http://www.topografix.com/GPX/1/1" xmlns:xsi="http://www.w3.org/2001/XMLSchema-instance" xsi:schemaLocation="http://www.topografix.com/GPX/1/1 http://www.topografix.com/GPX/1/1/gpx.xsd" version="1.1" creator="VisuGPX - https://www.visugpx.com">
  <metadata>
    <name>Alternativa Espinama Sotres por carretera</name>
    <desc><![CDATA[

]]></desc>
  </metadata>
  <trk>
    <name><![CDATA[Alternativa Espinama Sotres por carretera]]></name>
    <extensions>
      <line xmlns="http://www.topografix.com/GPX/gpx_style/0/2">
        <color>0000FF</color>
        <width>4</width>
      </line>
    </extensions>
    <trkseg>
      <trkpt lat="43.17906" lon="-4.60085">
        <ele>253.9</ele>
        <time>2026-05-06T22:21:35.000+02:00</time>
      </trkpt>
      <trkpt lat="43.17996" lon="-4.601">
        <ele>253.7</ele>
        <time>2026-08-24T18:36:55.553+02:00</time>
      </trkpt>
      <trkpt lat="43.1802" lon="-4.60102">
        <ele>253.9</ele>
        <time>2026-08-24T18:36:55.554+02:00</time>
      </trkpt>
      <trkpt lat="43.18084" lon="-4.6011">
        <ele>253.1</ele>
        <time>2026-08-24T18:36:55.554+02:00</time>
      </trkpt>
      <trkpt lat="43.18157" lon="-4.60117">
        <ele>251.3</ele>
        <time>2026-08-24T18:36:55.554+02:00</time>
      </trkpt>
      <trkpt lat="43.18217" lon="-4.60125">
        <ele>250.5</ele>
        <time>2026-08-24T18:36:55.554+02:00</time>
      </trkpt>
      <trkpt lat="43.18322" lon="-4.60141">
        <ele>250.6</ele>
        <time>2026-08-24T18:36:55.554+02:00</time>
      </trkpt>
      <trkpt lat="43.18374" lon="-4.60156">
        <ele>253.4</ele>
        <time>2026-08-24T18:36:55.554+02:00</time>
      </trkpt>
      <trkpt lat="43.18414" lon="-4.60177">
        <ele>255.2</ele>
        <time>2026-08-24T18:36:55.554+02:00</time>
      </trkpt>
      <trkpt lat="43.18511" lon="-4.60246">
        <ele>258.6</ele>
        <time>2026-08-24T18:36:55.554+02:00</time>
      </trkpt>
      <trkpt lat="43.18567" lon="-4.60304">
        <ele>263.5</ele>
        <time>2026-08-24T18:36:55.554+02:00</time>
      </trkpt>
      <trkpt lat="43.18603" lon="-4.60368">
        <ele>262.5</ele>
        <time>2026-08-24T18:36:55.554+02:00</time>
      </trkpt>
      <trkpt lat="43.18638" lon="-4.60415">
        <ele>264</ele>
        <time>2026-08-24T18:36:55.554+02:00</time>
      </trkpt>
      <trkpt lat="43.18689" lon="-4.60465">
        <ele>264.1</ele>
        <time>2026-08-24T18:36:55.554+02:00</time>
      </trkpt>
      <trkpt lat="43.18781" lon="-4.60537">
        <ele>258</ele>
        <time>2026-08-24T18:36:55.554+02:00</time>
      </trkpt>
      <trkpt lat="43.18822" lon="-4.60546">
        <ele>259.2</ele>
        <time>2026-08-24T18:36:55.554+02:00</time>
      </trkpt>
      <trkpt lat="43.18861" lon="-4.60535">
        <ele>257.4</ele>
        <time>2026-08-24T18:36:55.554+02:00</time>
      </trkpt>
      <trkpt lat="43.18891" lon="-4.60516">
        <ele>257.2</ele>
        <time>2026-08-24T18:36:55.554+02:00</time>
      </trkpt>
      <trkpt lat="43.1894" lon="-4.60482">
        <ele>256.3</ele>
        <time>2026-08-24T18:36:55.554+02:00</time>
      </trkpt>
      <trkpt lat="43.19067" lon="-4.60392">
        <ele>254.6</ele>
        <time>2026-08-24T18:36:55.554+02:00</time>
      </trkpt>
      <trkpt lat="43.1914" lon="-4.60351">
        <ele>255.7</ele>
        <time>2026-08-24T18:36:55.554+02:00</time>
      </trkpt>
      <trkpt lat="43.19185" lon="-4.6034">
        <ele>250.9</ele>
        <time>2026-08-24T18:36:55.554+02:00</time>
      </trkpt>
      <trkpt lat="43.19228" lon="-4.60338">
        <ele>250.7</ele>
        <time>2026-08-24T18:36:55.554+02:00</time>
      </trkpt>
      <trkpt lat="43.19307" lon="-4.60349">
        <ele>250.3</ele>
        <time>2026-08-24T18:36:55.554+02:00</time>
      </trkpt>
      <trkpt lat="43.19322" lon="-4.60349">
        <ele>251.3</ele>
        <time>2026-08-24T18:36:55.554+02:00</time>
      </trkpt>
      <trkpt lat="43.19359" lon="-4.60351">
        <ele>251.9</ele>
        <time>2026-08-24T18:36:55.554+02:00</time>
      </trkpt>
      <trkpt lat="43.19393" lon="-4.60342">
        <ele>249.7</ele>
        <time>2026-08-24T18:36:55.554+02:00</time>
      </trkpt>
      <trkpt lat="43.19438" lon="-4.60316">
        <ele>245.1</ele>
        <time>2026-08-24T18:36:55.554+02:00</time>
      </trkpt>
      <trkpt lat="43.19475" lon="-4.60276">
        <ele>242.5</ele>
        <time>2026-08-24T18:36:55.554+02:00</time>
      </trkpt>
      <trkpt lat="43.1952" lon="-4.60211">
        <ele>237.9</ele>
        <time>2026-08-24T18:36:55.554+02:00</time>
      </trkpt>
      <trkpt lat="43.19545" lon="-4.60173">
        <ele>236.1</ele>
        <time>2026-08-24T18:36:55.554+02:00</time>
      </trkpt>
      <trkpt lat="43.19567" lon="-4.60141">
        <ele>236.3</ele>
        <time>2026-08-24T18:36:55.554+02:00</time>
      </trkpt>
      <trkpt lat="43.19603" lon="-4.60083">
        <ele>237.8</ele>
        <time>2026-08-24T18:36:55.554+02:00</time>
      </trkpt>
      <trkpt lat="43.1962" lon="-4.60033">
        <ele>238.1</ele>
        <time>2026-08-24T18:36:55.554+02:00</time>
      </trkpt>
      <trkpt lat="43.19623" lon="-4.60016">
        <ele>238.8</ele>
        <time>2026-08-24T18:36:55.554+02:00</time>
      </trkpt>
      <trkpt lat="43.19625" lon="-4.5998">
        <ele>238.6</ele>
        <time>2026-08-24T18:36:55.554+02:00</time>
      </trkpt>
      <trkpt lat="43.19618" lon="-4.59926">
        <ele>237.8</ele>
        <time>2026-08-24T18:36:55.554+02:00</time>
      </trkpt>
      <trkpt lat="43.19614" lon="-4.59879">
        <ele>235.4</ele>
        <time>2026-08-24T18:36:55.554+02:00</time>
      </trkpt>
      <trkpt lat="43.19601" lon="-4.59797">
        <ele>238.7</ele>
        <time>2026-08-24T18:36:55.554+02:00</time>
      </trkpt>
      <trkpt lat="43.19575" lon="-4.59604">
        <ele>239.6</ele>
        <time>2026-08-24T18:36:55.554+02:00</time>
      </trkpt>
      <trkpt lat="43.19575" lon="-4.59559">
        <ele>238.3</ele>
        <time>2026-08-24T18:36:55.554+02:00</time>
      </trkpt>
      <trkpt lat="43.1959" lon="-4.59495">
        <ele>234.4</ele>
        <time>2026-08-24T18:36:55.554+02:00</time>
      </trkpt>
      <trkpt lat="43.1962" lon="-4.59441">
        <ele>233.7</ele>
        <time>2026-08-24T18:36:55.554+02:00</time>
      </trkpt>
      <trkpt lat="43.19631" lon="-4.59426">
        <ele>234.2</ele>
        <time>2026-08-24T18:36:55.554+02:00</time>
      </trkpt>
      <trkpt lat="43.19698" lon="-4.59355">
        <ele>233.6</ele>
        <time>2026-08-24T18:36:55.554+02:00</time>
      </trkpt>
      <trkpt lat="43.19715" lon="-4.59336">
        <ele>233.3</ele>
        <time>2026-08-24T18:36:55.554+02:00</time>
      </trkpt>
      <trkpt lat="43.19773" lon="-4.59256">
        <ele>232.8</ele>
        <time>2026-08-24T18:36:55.554+02:00</time>
      </trkpt>
      <trkpt lat="43.19824" lon="-4.59156">
        <ele>230.5</ele>
        <time>2026-08-24T18:36:55.554+02:00</time>
      </trkpt>
      <trkpt lat="43.19856" lon="-4.59096">
        <ele>229.3</ele>
        <time>2026-08-24T18:36:55.554+02:00</time>
      </trkpt>
      <trkpt lat="43.19874" lon="-4.5907">
        <ele>230.3</ele>
        <time>2026-08-24T18:36:55.554+02:00</time>
      </trkpt>
      <trkpt lat="43.19914" lon="-4.58995">
        <ele>228.5</ele>
        <time>2026-08-24T18:36:55.554+02:00</time>
      </trkpt>
      <trkpt lat="43.19942" lon="-4.58965">
        <ele>226.7</ele>
        <time>2026-08-24T18:36:55.554+02:00</time>
      </trkpt>
      <trkpt lat="43.19959" lon="-4.58956">
        <ele>224.4</ele>
        <time>2026-08-24T18:36:55.554+02:00</time>
      </trkpt>
      <trkpt lat="43.20011" lon="-4.58956">
        <ele>221</ele>
        <time>2026-08-24T18:36:55.554+02:00</time>
      </trkpt>
      <trkpt lat="43.20056" lon="-4.58969">
        <ele>222.4</ele>
        <time>2026-08-24T18:36:55.554+02:00</time>
      </trkpt>
      <trkpt lat="43.20077" lon="-4.58984">
        <ele>225.5</ele>
        <time>2026-08-24T18:36:55.554+02:00</time>
      </trkpt>
      <trkpt lat="43.20112" lon="-4.59023">
        <ele>224.2</ele>
        <time>2026-08-24T18:36:55.554+02:00</time>
      </trkpt>
      <trkpt lat="43.2014" lon="-4.59055">
        <ele>221.1</ele>
        <time>2026-08-24T18:36:55.554+02:00</time>
      </trkpt>
      <trkpt lat="43.20198" lon="-4.59096">
        <ele>221.8</ele>
        <time>2026-08-24T18:36:55.554+02:00</time>
      </trkpt>
      <trkpt lat="43.20228" lon="-4.59119">
        <ele>220.8</ele>
        <time>2026-08-24T18:36:55.554+02:00</time>
      </trkpt>
      <trkpt lat="43.20251" lon="-4.59136">
        <ele>219</ele>
        <time>2026-08-24T18:36:55.554+02:00</time>
      </trkpt>
      <trkpt lat="43.20307" lon="-4.5919">
        <ele>221</ele>
        <time>2026-08-24T18:36:55.554+02:00</time>
      </trkpt>
      <trkpt lat="43.20324" lon="-4.5922">
        <ele>222.3</ele>
        <time>2026-08-24T18:36:55.554+02:00</time>
      </trkpt>
      <trkpt lat="43.20346" lon="-4.59297">
        <ele>219.7</ele>
        <time>2026-08-24T18:36:55.554+02:00</time>
      </trkpt>
      <trkpt lat="43.20356" lon="-4.59325">
        <ele>218.3</ele>
        <time>2026-08-24T18:36:55.554+02:00</time>
      </trkpt>
      <trkpt lat="43.20382" lon="-4.59344">
        <ele>217</ele>
        <time>2026-08-24T18:36:55.554+02:00</time>
      </trkpt>
      <trkpt lat="43.20414" lon="-4.59355">
        <ele>219</ele>
        <time>2026-08-24T18:36:55.554+02:00</time>
      </trkpt>
      <trkpt lat="43.20447" lon="-4.59357">
        <ele>219.1</ele>
        <time>2026-08-24T18:36:55.554+02:00</time>
      </trkpt>
      <trkpt lat="43.20554" lon="-4.59387">
        <ele>215.9</ele>
        <time>2026-08-24T18:36:55.554+02:00</time>
      </trkpt>
      <trkpt lat="43.20635" lon="-4.59402">
        <ele>214.8</ele>
        <time>2026-08-24T18:36:55.554+02:00</time>
      </trkpt>
      <trkpt lat="43.20691" lon="-4.59428">
        <ele>218.5</ele>
        <time>2026-08-24T18:36:55.554+02:00</time>
      </trkpt>
      <trkpt lat="43.20762" lon="-4.59441">
        <ele>217</ele>
        <time>2026-08-24T18:36:55.554+02:00</time>
      </trkpt>
      <trkpt lat="43.20803" lon="-4.59437">
        <ele>216.7</ele>
        <time>2026-08-24T18:36:55.554+02:00</time>
      </trkpt>
      <trkpt lat="43.20835" lon="-4.59441">
        <ele>217.3</ele>
        <time>2026-08-24T18:36:55.554+02:00</time>
      </trkpt>
      <trkpt lat="43.20856" lon="-4.59439">
        <ele>216.4</ele>
        <time>2026-08-24T18:36:55.554+02:00</time>
      </trkpt>
      <trkpt lat="43.20912" lon="-4.59447">
        <ele>217.2</ele>
        <time>2026-08-24T18:36:55.554+02:00</time>
      </trkpt>
      <trkpt lat="43.20998" lon="-4.5945">
        <ele>218.7</ele>
        <time>2026-08-24T18:36:55.554+02:00</time>
      </trkpt>
      <trkpt lat="43.21015" lon="-4.59456">
        <ele>220.8</ele>
        <time>2026-08-24T18:36:55.554+02:00</time>
      </trkpt>
      <trkpt lat="43.21039" lon="-4.59473">
        <ele>217.3</ele>
        <time>2026-08-24T18:36:55.554+02:00</time>
      </trkpt>
      <trkpt lat="43.21069" lon="-4.59499">
        <ele>209</ele>
        <time>2026-08-24T18:36:55.554+02:00</time>
      </trkpt>
      <trkpt lat="43.21127" lon="-4.59503">
        <ele>212.2</ele>
        <time>2026-08-24T18:36:55.554+02:00</time>
      </trkpt>
      <trkpt lat="43.21148" lon="-4.59499">
        <ele>211.9</ele>
        <time>2026-08-24T18:36:55.554+02:00</time>
      </trkpt>
      <trkpt lat="43.21172" lon="-4.59484">
        <ele>210.8</ele>
        <time>2026-08-24T18:36:55.554+02:00</time>
      </trkpt>
      <trkpt lat="43.21208" lon="-4.59426">
        <ele>207.3</ele>
        <time>2026-08-24T18:36:55.554+02:00</time>
      </trkpt>
      <trkpt lat="43.2123" lon="-4.59435">
        <ele>198.5</ele>
        <time>2026-08-24T18:36:55.554+02:00</time>
      </trkpt>
      <trkpt lat="43.21249" lon="-4.59445">
        <ele>204</ele>
        <time>2026-08-24T18:36:55.554+02:00</time>
      </trkpt>
      <trkpt lat="43.21266" lon="-4.59437">
        <ele>211.6</ele>
        <time>2026-08-24T18:36:55.554+02:00</time>
      </trkpt>
      <trkpt lat="43.21275" lon="-4.5942">
        <ele>208.4</ele>
        <time>2026-08-24T18:36:55.554+02:00</time>
      </trkpt>
      <trkpt lat="43.21283" lon="-4.59385">
        <ele>209.5</ele>
        <time>2026-08-24T18:36:55.554+02:00</time>
      </trkpt>
      <trkpt lat="43.2129" lon="-4.59351">
        <ele>209.5</ele>
        <time>2026-08-24T18:36:55.554+02:00</time>
      </trkpt>
      <trkpt lat="43.21294" lon="-4.59317">
        <ele>207.6</ele>
        <time>2026-08-24T18:36:55.554+02:00</time>
      </trkpt>
      <trkpt lat="43.21296" lon="-4.59293">
        <ele>205.1</ele>
        <time>2026-08-24T18:36:55.554+02:00</time>
      </trkpt>
      <trkpt lat="43.21298" lon="-4.5928">
        <ele>204</ele>
        <time>2026-08-24T18:36:55.554+02:00</time>
      </trkpt>
      <trkpt lat="43.2132" lon="-4.59235">
        <ele>205.4</ele>
        <time>2026-08-24T18:36:55.554+02:00</time>
      </trkpt>
      <trkpt lat="43.21337" lon="-4.59218">
        <ele>204.8</ele>
        <time>2026-08-24T18:36:55.554+02:00</time>
      </trkpt>
      <trkpt lat="43.21356" lon="-4.59209">
        <ele>205.2</ele>
        <time>2026-08-24T18:36:55.554+02:00</time>
      </trkpt>
      <trkpt lat="43.21404" lon="-4.59216">
        <ele>204.4</ele>
        <time>2026-08-24T18:36:55.554+02:00</time>
      </trkpt>
      <trkpt lat="43.21416" lon="-4.5922">
        <ele>203.5</ele>
        <time>2026-08-24T18:36:55.554+02:00</time>
      </trkpt>
      <trkpt lat="43.21442" lon="-4.59237">
        <ele>204.1</ele>
        <time>2026-08-24T18:36:55.554+02:00</time>
      </trkpt>
      <trkpt lat="43.21466" lon="-4.5925">
        <ele>202.9</ele>
        <time>2026-08-24T18:36:55.554+02:00</time>
      </trkpt>
      <trkpt lat="43.21537" lon="-4.5925">
        <ele>201.7</ele>
        <time>2026-08-24T18:36:55.554+02:00</time>
      </trkpt>
      <trkpt lat="43.21592" lon="-4.59261">
        <ele>205.1</ele>
        <time>2026-08-24T18:36:55.554+02:00</time>
      </trkpt>
      <trkpt lat="43.21646" lon="-4.5925">
        <ele>200.3</ele>
        <time>2026-08-24T18:36:55.554+02:00</time>
      </trkpt>
      <trkpt lat="43.21683" lon="-4.59231">
        <ele>203.4</ele>
        <time>2026-08-24T18:36:55.554+02:00</time>
      </trkpt>
      <trkpt lat="43.21732" lon="-4.59196">
        <ele>203.9</ele>
        <time>2026-08-24T18:36:55.554+02:00</time>
      </trkpt>
      <trkpt lat="43.21803" lon="-4.59081">
        <ele>198.1</ele>
        <time>2026-08-24T18:36:55.554+02:00</time>
      </trkpt>
      <trkpt lat="43.21831" lon="-4.59048">
        <ele>199</ele>
        <time>2026-08-24T18:36:55.554+02:00</time>
      </trkpt>
      <trkpt lat="43.21927" lon="-4.58956">
        <ele>198.4</ele>
        <time>2026-08-24T18:36:55.554+02:00</time>
      </trkpt>
      <trkpt lat="43.2197" lon="-4.58887">
        <ele>194.3</ele>
        <time>2026-08-24T18:36:55.554+02:00</time>
      </trkpt>
      <trkpt lat="43.21996" lon="-4.58825">
        <ele>197.1</ele>
        <time>2026-08-24T18:36:55.554+02:00</time>
      </trkpt>
      <trkpt lat="43.22017" lon="-4.58784">
        <ele>194.1</ele>
        <time>2026-08-24T18:36:55.554+02:00</time>
      </trkpt>
      <trkpt lat="43.22041" lon="-4.58769">
        <ele>192.8</ele>
        <time>2026-08-24T18:36:55.554+02:00</time>
      </trkpt>
      <trkpt lat="43.22064" lon="-4.58767">
        <ele>192.9</ele>
        <time>2026-08-24T18:36:55.554+02:00</time>
      </trkpt>
      <trkpt lat="43.22103" lon="-4.58784">
        <ele>195.2</ele>
        <time>2026-08-24T18:36:55.554+02:00</time>
      </trkpt>
      <trkpt lat="43.22127" lon="-4.58797">
        <ele>195.5</ele>
        <time>2026-08-24T18:36:55.554+02:00</time>
      </trkpt>
      <trkpt lat="43.22148" lon="-4.58802">
        <ele>194.5</ele>
        <time>2026-08-24T18:36:55.554+02:00</time>
      </trkpt>
      <trkpt lat="43.22165" lon="-4.58793">
        <ele>192.7</ele>
        <time>2026-08-24T18:36:55.554+02:00</time>
      </trkpt>
      <trkpt lat="43.22178" lon="-4.5878">
        <ele>195.2</ele>
        <time>2026-08-24T18:36:55.554+02:00</time>
      </trkpt>
      <trkpt lat="43.22193" lon="-4.58731">
        <ele>192</ele>
        <time>2026-08-24T18:36:55.554+02:00</time>
      </trkpt>
      <trkpt lat="43.22238" lon="-4.58675">
        <ele>189.5</ele>
        <time>2026-08-24T18:36:55.554+02:00</time>
      </trkpt>
      <trkpt lat="43.22281" lon="-4.58619">
        <ele>185.7</ele>
        <time>2026-08-24T18:36:55.554+02:00</time>
      </trkpt>
      <trkpt lat="43.22305" lon="-4.58611">
        <ele>186.6</ele>
        <time>2026-08-24T18:36:55.554+02:00</time>
      </trkpt>
      <trkpt lat="43.22328" lon="-4.58611">
        <ele>185.1</ele>
        <time>2026-08-24T18:36:55.554+02:00</time>
      </trkpt>
      <trkpt lat="43.22397" lon="-4.58615">
        <ele>181.1</ele>
        <time>2026-08-24T18:36:55.554+02:00</time>
      </trkpt>
      <trkpt lat="43.22423" lon="-4.58608">
        <ele>179.3</ele>
        <time>2026-08-24T18:36:55.555+02:00</time>
      </trkpt>
      <trkpt lat="43.22442" lon="-4.58591">
        <ele>178.2</ele>
        <time>2026-08-24T18:36:55.555+02:00</time>
      </trkpt>
      <trkpt lat="43.22483" lon="-4.58533">
        <ele>183.1</ele>
        <time>2026-08-24T18:36:55.555+02:00</time>
      </trkpt>
      <trkpt lat="43.22519" lon="-4.58478">
        <ele>174.1</ele>
        <time>2026-08-24T18:36:55.555+02:00</time>
      </trkpt>
      <trkpt lat="43.22571" lon="-4.58424">
        <ele>172.9</ele>
        <time>2026-08-24T18:36:55.555+02:00</time>
      </trkpt>
      <trkpt lat="43.22605" lon="-4.58402">
        <ele>174.2</ele>
        <time>2026-08-24T18:36:55.555+02:00</time>
      </trkpt>
      <trkpt lat="43.22635" lon="-4.58383">
        <ele>176</ele>
        <time>2026-08-24T18:36:55.555+02:00</time>
      </trkpt>
      <trkpt lat="43.22687" lon="-4.58364">
        <ele>173.4</ele>
        <time>2026-08-24T18:36:55.555+02:00</time>
      </trkpt>
      <trkpt lat="43.2273" lon="-4.58355">
        <ele>170.7</ele>
        <time>2026-08-24T18:36:55.555+02:00</time>
      </trkpt>
      <trkpt lat="43.22764" lon="-4.58342">
        <ele>172</ele>
        <time>2026-08-24T18:36:55.555+02:00</time>
      </trkpt>
      <trkpt lat="43.22768" lon="-4.58332">
        <ele>167.1</ele>
        <time>2026-08-24T18:36:55.555+02:00</time>
      </trkpt>
      <trkpt lat="43.22768" lon="-4.58314">
        <ele>165.5</ele>
        <time>2026-08-24T18:36:55.555+02:00</time>
      </trkpt>
      <trkpt lat="43.2277" lon="-4.58291">
        <ele>171</ele>
        <time>2026-08-24T18:36:55.555+02:00</time>
      </trkpt>
      <trkpt lat="43.228" lon="-4.58259">
        <ele>173.8</ele>
        <time>2026-08-24T18:36:55.555+02:00</time>
      </trkpt>
      <trkpt lat="43.2282" lon="-4.58231">
        <ele>171.8</ele>
        <time>2026-08-24T18:36:55.555+02:00</time>
      </trkpt>
      <trkpt lat="43.22848" lon="-4.58196">
        <ele>170.6</ele>
        <time>2026-08-24T18:36:55.555+02:00</time>
      </trkpt>
      <trkpt lat="43.22893" lon="-4.58171">
        <ele>168.7</ele>
        <time>2026-08-24T18:36:55.555+02:00</time>
      </trkpt>
      <trkpt lat="43.22998" lon="-4.58158">
        <ele>169.2</ele>
        <time>2026-08-24T18:36:55.555+02:00</time>
      </trkpt>
      <trkpt lat="43.23058" lon="-4.58175">
        <ele>166</ele>
        <time>2026-08-24T18:36:55.555+02:00</time>
      </trkpt>
      <trkpt lat="43.23082" lon="-4.58171">
        <ele>167.5</ele>
        <time>2026-08-24T18:36:55.555+02:00</time>
      </trkpt>
      <trkpt lat="43.23101" lon="-4.58158">
        <ele>167.9</ele>
        <time>2026-08-24T18:36:55.555+02:00</time>
      </trkpt>
      <trkpt lat="43.2318" lon="-4.58055">
        <ele>165.9</ele>
        <time>2026-08-24T18:36:55.555+02:00</time>
      </trkpt>
      <trkpt lat="43.23204" lon="-4.5799">
        <ele>165.8</ele>
        <time>2026-08-24T18:36:55.555+02:00</time>
      </trkpt>
      <trkpt lat="43.23238" lon="-4.57924">
        <ele>165.4</ele>
        <time>2026-08-24T18:36:55.555+02:00</time>
      </trkpt>
      <trkpt lat="43.23268" lon="-4.57887">
        <ele>163.8</ele>
        <time>2026-08-24T18:36:55.555+02:00</time>
      </trkpt>
      <trkpt lat="43.23318" lon="-4.57857">
        <ele>163.3</ele>
        <time>2026-08-24T18:36:55.555+02:00</time>
      </trkpt>
      <trkpt lat="43.23408" lon="-4.57842">
        <ele>162.2</ele>
        <time>2026-08-24T18:36:55.555+02:00</time>
      </trkpt>
      <trkpt lat="43.2344" lon="-4.57812">
        <ele>163.6</ele>
        <time>2026-08-24T18:36:55.555+02:00</time>
      </trkpt>
      <trkpt lat="43.23474" lon="-4.57793">
        <ele>166.2</ele>
        <time>2026-08-24T18:36:55.555+02:00</time>
      </trkpt>
      <trkpt lat="43.23496" lon="-4.57799">
        <ele>170.3</ele>
        <time>2026-08-24T18:36:55.555+02:00</time>
      </trkpt>
      <trkpt lat="43.23519" lon="-4.57815">
        <ele>163.3</ele>
        <time>2026-08-24T18:36:55.555+02:00</time>
      </trkpt>
      <trkpt lat="43.23551" lon="-4.57853">
        <ele>160</ele>
        <time>2026-08-24T18:36:55.555+02:00</time>
      </trkpt>
      <trkpt lat="43.23579" lon="-4.57911">
        <ele>160.9</ele>
        <time>2026-08-24T18:36:55.555+02:00</time>
      </trkpt>
      <trkpt lat="43.23594" lon="-4.57926">
        <ele>161.9</ele>
        <time>2026-08-24T18:36:55.555+02:00</time>
      </trkpt>
      <trkpt lat="43.23612" lon="-4.5793">
        <ele>163.1</ele>
        <time>2026-08-24T18:36:55.555+02:00</time>
      </trkpt>
      <trkpt lat="43.2365" lon="-4.57935">
        <ele>161.4</ele>
        <time>2026-08-24T18:36:55.555+02:00</time>
      </trkpt>
      <trkpt lat="43.23723" lon="-4.5796">
        <ele>171.5</ele>
        <time>2026-08-24T18:36:55.555+02:00</time>
      </trkpt>
      <trkpt lat="43.23755" lon="-4.57995">
        <ele>159.4</ele>
        <time>2026-08-24T18:36:55.555+02:00</time>
      </trkpt>
      <trkpt lat="43.23794" lon="-4.58033">
        <ele>154.6</ele>
        <time>2026-08-24T18:36:55.555+02:00</time>
      </trkpt>
      <trkpt lat="43.23839" lon="-4.58046">
        <ele>155.8</ele>
        <time>2026-08-24T18:36:55.555+02:00</time>
      </trkpt>
      <trkpt lat="43.23856" lon="-4.58046">
        <ele>156</ele>
        <time>2026-08-24T18:36:55.555+02:00</time>
      </trkpt>
      <trkpt lat="43.23918" lon="-4.58055">
        <ele>153.3</ele>
        <time>2026-08-24T18:36:55.555+02:00</time>
      </trkpt>
      <trkpt lat="43.23951" lon="-4.58068">
        <ele>152.6</ele>
        <time>2026-08-24T18:36:55.555+02:00</time>
      </trkpt>
      <trkpt lat="43.23972" lon="-4.58087">
        <ele>151.6</ele>
        <time>2026-08-24T18:36:55.555+02:00</time>
      </trkpt>
      <trkpt lat="43.24" lon="-4.58128">
        <ele>151.8</ele>
        <time>2026-08-24T18:36:55.555+02:00</time>
      </trkpt>
      <trkpt lat="43.24013" lon="-4.5816">
        <ele>158.5</ele>
        <time>2026-08-24T18:36:55.555+02:00</time>
      </trkpt>
      <trkpt lat="43.24019" lon="-4.58188">
        <ele>154.6</ele>
        <time>2026-08-24T18:36:55.555+02:00</time>
      </trkpt>
      <trkpt lat="43.24032" lon="-4.58248">
        <ele>151.1</ele>
        <time>2026-08-24T18:36:55.555+02:00</time>
      </trkpt>
      <trkpt lat="43.24045" lon="-4.58267">
        <ele>151.3</ele>
        <time>2026-08-24T18:36:55.555+02:00</time>
      </trkpt>
      <trkpt lat="43.24056" lon="-4.58274">
        <ele>150.5</ele>
        <time>2026-08-24T18:36:55.555+02:00</time>
      </trkpt>
      <trkpt lat="43.24077" lon="-4.58272">
        <ele>149.4</ele>
        <time>2026-08-24T18:36:55.555+02:00</time>
      </trkpt>
      <trkpt lat="43.24107" lon="-4.58237">
        <ele>152</ele>
        <time>2026-08-24T18:36:55.555+02:00</time>
      </trkpt>
      <trkpt lat="43.24131" lon="-4.58218">
        <ele>151</ele>
        <time>2026-08-24T18:36:55.555+02:00</time>
      </trkpt>
      <trkpt lat="43.24184" lon="-4.5822">
        <ele>147.9</ele>
        <time>2026-08-24T18:36:55.555+02:00</time>
      </trkpt>
      <trkpt lat="43.24208" lon="-4.58233">
        <ele>148.6</ele>
        <time>2026-08-24T18:36:55.555+02:00</time>
      </trkpt>
      <trkpt lat="43.24225" lon="-4.5825">
        <ele>148.4</ele>
        <time>2026-08-24T18:36:55.555+02:00</time>
      </trkpt>
      <trkpt lat="43.24253" lon="-4.58304">
        <ele>152.9</ele>
        <time>2026-08-24T18:36:55.555+02:00</time>
      </trkpt>
      <trkpt lat="43.24275" lon="-4.5836">
        <ele>156.7</ele>
        <time>2026-08-24T18:36:55.555+02:00</time>
      </trkpt>
      <trkpt lat="43.243" lon="-4.58381">
        <ele>162.1</ele>
        <time>2026-08-24T18:36:55.555+02:00</time>
      </trkpt>
      <trkpt lat="43.2433" lon="-4.58385">
        <ele>152.8</ele>
        <time>2026-08-24T18:36:55.555+02:00</time>
      </trkpt>
      <trkpt lat="43.24371" lon="-4.58364">
        <ele>153.6</ele>
        <time>2026-08-24T18:36:55.555+02:00</time>
      </trkpt>
      <trkpt lat="43.24393" lon="-4.58355">
        <ele>152.2</ele>
        <time>2026-08-24T18:36:55.555+02:00</time>
      </trkpt>
      <trkpt lat="43.2441" lon="-4.58357">
        <ele>146.2</ele>
        <time>2026-08-24T18:36:55.555+02:00</time>
      </trkpt>
      <trkpt lat="43.24436" lon="-4.5837">
        <ele>149.3</ele>
        <time>2026-08-24T18:36:55.555+02:00</time>
      </trkpt>
      <trkpt lat="43.2447" lon="-4.58413">
        <ele>147</ele>
        <time>2026-08-24T18:36:55.555+02:00</time>
      </trkpt>
      <trkpt lat="43.24528" lon="-4.58525">
        <ele>142.9</ele>
        <time>2026-08-24T18:36:55.555+02:00</time>
      </trkpt>
      <trkpt lat="43.24566" lon="-4.58581">
        <ele>147.6</ele>
        <time>2026-08-24T18:36:55.555+02:00</time>
      </trkpt>
      <trkpt lat="43.24618" lon="-4.58606">
        <ele>144</ele>
        <time>2026-08-24T18:36:55.555+02:00</time>
      </trkpt>
      <trkpt lat="43.24659" lon="-4.58628">
        <ele>143.5</ele>
        <time>2026-08-24T18:36:55.555+02:00</time>
      </trkpt>
      <trkpt lat="43.24699" lon="-4.58675">
        <ele>157.5</ele>
        <time>2026-08-24T18:36:55.555+02:00</time>
      </trkpt>
      <trkpt lat="43.24714" lon="-4.58718">
        <ele>159.2</ele>
        <time>2026-08-24T18:36:55.555+02:00</time>
      </trkpt>
      <trkpt lat="43.24706" lon="-4.58761">
        <ele>149.4</ele>
        <time>2026-08-24T18:36:55.555+02:00</time>
      </trkpt>
      <trkpt lat="43.24687" lon="-4.58802">
        <ele>142.6</ele>
        <time>2026-08-24T18:36:55.555+02:00</time>
      </trkpt>
      <trkpt lat="43.24669" lon="-4.58859">
        <ele>144.4</ele>
        <time>2026-08-24T18:36:55.555+02:00</time>
      </trkpt>
      <trkpt lat="43.24669" lon="-4.58881">
        <ele>143</ele>
        <time>2026-08-24T18:36:55.555+02:00</time>
      </trkpt>
      <trkpt lat="43.24689" lon="-4.5892">
        <ele>143.1</ele>
        <time>2026-08-24T18:36:55.555+02:00</time>
      </trkpt>
      <trkpt lat="43.2471" lon="-4.58941">
        <ele>147.9</ele>
        <time>2026-08-24T18:36:55.555+02:00</time>
      </trkpt>
      <trkpt lat="43.24727" lon="-4.58956">
        <ele>152.7</ele>
        <time>2026-08-24T18:36:55.555+02:00</time>
      </trkpt>
      <trkpt lat="43.24745" lon="-4.58984">
        <ele>155.5</ele>
        <time>2026-08-24T18:36:55.555+02:00</time>
      </trkpt>
      <trkpt lat="43.24747" lon="-4.58999">
        <ele>145.3</ele>
        <time>2026-08-24T18:36:55.555+02:00</time>
      </trkpt>
      <trkpt lat="43.2474" lon="-4.59014">
        <ele>139.7</ele>
        <time>2026-08-24T18:36:55.555+02:00</time>
      </trkpt>
      <trkpt lat="43.24734" lon="-4.59035">
        <ele>144.5</ele>
        <time>2026-08-24T18:36:55.555+02:00</time>
      </trkpt>
      <trkpt lat="43.24736" lon="-4.59053">
        <ele>150</ele>
        <time>2026-08-24T18:36:55.555+02:00</time>
      </trkpt>
      <trkpt lat="43.24757" lon="-4.59083">
        <ele>142.5</ele>
        <time>2026-08-24T18:36:55.555+02:00</time>
      </trkpt>
      <trkpt lat="43.24798" lon="-4.59147">
        <ele>140.4</ele>
        <time>2026-08-24T18:36:55.555+02:00</time>
      </trkpt>
      <trkpt lat="43.24828" lon="-4.59205">
        <ele>140.7</ele>
        <time>2026-08-24T18:36:55.555+02:00</time>
      </trkpt>
      <trkpt lat="43.24832" lon="-4.59244">
        <ele>139.6</ele>
        <time>2026-08-24T18:36:55.555+02:00</time>
      </trkpt>
      <trkpt lat="43.24828" lon="-4.59269">
        <ele>140.6</ele>
        <time>2026-08-24T18:36:55.555+02:00</time>
      </trkpt>
      <trkpt lat="43.24824" lon="-4.59297">
        <ele>140.9</ele>
        <time>2026-08-24T18:36:55.555+02:00</time>
      </trkpt>
      <trkpt lat="43.24822" lon="-4.59338">
        <ele>140.2</ele>
        <time>2026-08-24T18:36:55.555+02:00</time>
      </trkpt>
      <trkpt lat="43.24828" lon="-4.59462">
        <ele>138.8</ele>
        <time>2026-08-24T18:36:55.555+02:00</time>
      </trkpt>
      <trkpt lat="43.24863" lon="-4.5957">
        <ele>139</ele>
        <time>2026-08-24T18:36:55.555+02:00</time>
      </trkpt>
      <trkpt lat="43.24884" lon="-4.5966">
        <ele>137.5</ele>
        <time>2026-08-24T18:36:55.555+02:00</time>
      </trkpt>
      <trkpt lat="43.24912" lon="-4.59737">
        <ele>133.1</ele>
        <time>2026-08-24T18:36:55.555+02:00</time>
      </trkpt>
      <trkpt lat="43.24923" lon="-4.59782">
        <ele>133.1</ele>
        <time>2026-08-24T18:36:55.555+02:00</time>
      </trkpt>
      <trkpt lat="43.2492" lon="-4.59877">
        <ele>131</ele>
        <time>2026-08-24T18:36:55.555+02:00</time>
      </trkpt>
      <trkpt lat="43.24938" lon="-4.59939">
        <ele>129.4</ele>
        <time>2026-08-24T18:36:55.555+02:00</time>
      </trkpt>
      <trkpt lat="43.24978" lon="-4.60003">
        <ele>124.2</ele>
        <time>2026-08-24T18:36:55.555+02:00</time>
      </trkpt>
      <trkpt lat="43.24983" lon="-4.6004">
        <ele>120.4</ele>
        <time>2026-08-24T18:36:55.555+02:00</time>
      </trkpt>
      <trkpt lat="43.24976" lon="-4.60074">
        <ele>120.2</ele>
        <time>2026-08-24T18:36:55.555+02:00</time>
      </trkpt>
      <trkpt lat="43.24974" lon="-4.60104">
        <ele>120.3</ele>
        <time>2026-08-24T18:36:55.555+02:00</time>
      </trkpt>
      <trkpt lat="43.24978" lon="-4.60134">
        <ele>123.1</ele>
        <time>2026-08-24T18:36:55.555+02:00</time>
      </trkpt>
      <trkpt lat="43.25" lon="-4.60181">
        <ele>119.9</ele>
        <time>2026-08-24T18:36:55.555+02:00</time>
      </trkpt>
      <trkpt lat="43.25066" lon="-4.60261">
        <ele>115.4</ele>
        <time>2026-08-24T18:36:55.555+02:00</time>
      </trkpt>
      <trkpt lat="43.25088" lon="-4.60293">
        <ele>115</ele>
        <time>2026-08-24T18:36:55.555+02:00</time>
      </trkpt>
      <trkpt lat="43.25109" lon="-4.6034">
        <ele>112.4</ele>
        <time>2026-08-24T18:36:55.555+02:00</time>
      </trkpt>
      <trkpt lat="43.25114" lon="-4.6043">
        <ele>109.8</ele>
        <time>2026-08-24T18:36:55.555+02:00</time>
      </trkpt>
      <trkpt lat="43.25124" lon="-4.60516">
        <ele>111.4</ele>
        <time>2026-08-24T18:36:55.555+02:00</time>
      </trkpt>
      <trkpt lat="43.25141" lon="-4.6061">
        <ele>109.6</ele>
        <time>2026-08-24T18:36:55.555+02:00</time>
      </trkpt>
      <trkpt lat="43.25159" lon="-4.60666">
        <ele>113.4</ele>
        <time>2026-08-24T18:36:55.555+02:00</time>
      </trkpt>
      <trkpt lat="43.2518" lon="-4.60722">
        <ele>109.7</ele>
        <time>2026-08-24T18:36:55.555+02:00</time>
      </trkpt>
      <trkpt lat="43.25247" lon="-4.60872">
        <ele>109.9</ele>
        <time>2026-08-24T18:36:55.555+02:00</time>
      </trkpt>
      <trkpt lat="43.25275" lon="-4.60941">
        <ele>109</ele>
        <time>2026-08-24T18:36:55.555+02:00</time>
      </trkpt>
      <trkpt lat="43.25277" lon="-4.6098">
        <ele>108.2</ele>
        <time>2026-08-24T18:36:55.555+02:00</time>
      </trkpt>
      <trkpt lat="43.2527" lon="-4.61027">
        <ele>108</ele>
        <time>2026-08-24T18:36:55.555+02:00</time>
      </trkpt>
      <trkpt lat="43.25257" lon="-4.61065">
        <ele>108.1</ele>
        <time>2026-08-24T18:36:55.555+02:00</time>
      </trkpt>
      <trkpt lat="43.25247" lon="-4.611">
        <ele>106.8</ele>
        <time>2026-08-24T18:36:55.555+02:00</time>
      </trkpt>
      <trkpt lat="43.25232" lon="-4.61168">
        <ele>105.1</ele>
        <time>2026-08-24T18:36:55.555+02:00</time>
      </trkpt>
      <trkpt lat="43.25234" lon="-4.61203">
        <ele>107.4</ele>
        <time>2026-08-24T18:36:55.555+02:00</time>
      </trkpt>
      <trkpt lat="43.25257" lon="-4.61252">
        <ele>106.1</ele>
        <time>2026-08-24T18:36:55.555+02:00</time>
      </trkpt>
      <trkpt lat="43.25275" lon="-4.61273">
        <ele>106.5</ele>
        <time>2026-08-24T18:36:55.555+02:00</time>
      </trkpt>
      <trkpt lat="43.25311" lon="-4.61297">
        <ele>104.4</ele>
        <time>2026-08-24T18:36:55.555+02:00</time>
      </trkpt>
      <trkpt lat="43.25371" lon="-4.61312">
        <ele>105.8</ele>
        <time>2026-08-24T18:36:55.555+02:00</time>
      </trkpt>
      <trkpt lat="43.25405" lon="-4.61323">
        <ele>105.1</ele>
        <time>2026-08-24T18:36:55.555+02:00</time>
      </trkpt>
      <trkpt lat="43.25414" lon="-4.61329">
        <ele>105.4</ele>
        <time>2026-08-24T18:36:55.555+02:00</time>
      </trkpt>
      <trkpt lat="43.25438" lon="-4.61357">
        <ele>106.2</ele>
        <time>2026-08-24T18:36:55.555+02:00</time>
      </trkpt>
      <trkpt lat="43.25446" lon="-4.61383">
        <ele>105.4</ele>
        <time>2026-08-24T18:36:55.555+02:00</time>
      </trkpt>
      <trkpt lat="43.25446" lon="-4.61402">
        <ele>105.2</ele>
        <time>2026-08-24T18:36:55.555+02:00</time>
      </trkpt>
      <trkpt lat="43.2545" lon="-4.61426">
        <ele>103.5</ele>
        <time>2026-08-24T18:36:55.555+02:00</time>
      </trkpt>
      <trkpt lat="43.25459" lon="-4.61475">
        <ele>102.6</ele>
        <time>2026-08-24T18:36:55.555+02:00</time>
      </trkpt>
      <trkpt lat="43.25478" lon="-4.61514">
        <ele>101.6</ele>
        <time>2026-08-24T18:36:55.555+02:00</time>
      </trkpt>
      <trkpt lat="43.25504" lon="-4.61542">
        <ele>100.9</ele>
        <time>2026-08-24T18:36:55.555+02:00</time>
      </trkpt>
      <trkpt lat="43.25558" lon="-4.61565">
        <ele>101.7</ele>
        <time>2026-08-24T18:36:55.555+02:00</time>
      </trkpt>
      <trkpt lat="43.25616" lon="-4.61572">
        <ele>102.9</ele>
        <time>2026-08-24T18:36:55.555+02:00</time>
      </trkpt>
      <trkpt lat="43.25656" lon="-4.61582">
        <ele>102.5</ele>
        <time>2026-08-24T18:36:55.556+02:00</time>
      </trkpt>
      <trkpt lat="43.25693" lon="-4.6161">
        <ele>102.3</ele>
        <time>2026-08-24T18:36:55.556+02:00</time>
      </trkpt>
      <trkpt lat="43.25725" lon="-4.61643">
        <ele>103.9</ele>
        <time>2026-08-24T18:36:55.556+02:00</time>
      </trkpt>
      <trkpt lat="43.25785" lon="-4.61705">
        <ele>102.5</ele>
        <time>2026-08-24T18:36:55.556+02:00</time>
      </trkpt>
      <trkpt lat="43.25835" lon="-4.61752">
        <ele>99.6</ele>
        <time>2026-08-24T18:36:55.556+02:00</time>
      </trkpt>
      <trkpt lat="43.25869" lon="-4.61763">
        <ele>99.4</ele>
        <time>2026-08-24T18:36:55.556+02:00</time>
      </trkpt>
      <trkpt lat="43.25884" lon="-4.61771">
        <ele>99.4</ele>
        <time>2026-08-24T18:36:55.556+02:00</time>
      </trkpt>
      <trkpt lat="43.25897" lon="-4.61788">
        <ele>101.4</ele>
        <time>2026-08-24T18:36:55.556+02:00</time>
      </trkpt>
      <trkpt lat="43.25925" lon="-4.61825">
        <ele>101.4</ele>
        <time>2026-08-24T18:36:55.556+02:00</time>
      </trkpt>
      <trkpt lat="43.25946" lon="-4.61844">
        <ele>100.9</ele>
        <time>2026-08-24T18:36:55.556+02:00</time>
      </trkpt>
      <trkpt lat="43.25959" lon="-4.61859">
        <ele>100.2</ele>
        <time>2026-08-24T18:36:55.556+02:00</time>
      </trkpt>
      <trkpt lat="43.25974" lon="-4.619">
        <ele>102.8</ele>
        <time>2026-08-24T18:36:55.556+02:00</time>
      </trkpt>
      <trkpt lat="43.25983" lon="-4.61913">
        <ele>102.2</ele>
        <time>2026-08-24T18:36:55.556+02:00</time>
      </trkpt>
      <trkpt lat="43.25989" lon="-4.61924">
        <ele>100.5</ele>
        <time>2026-08-24T18:36:55.556+02:00</time>
      </trkpt>
      <trkpt lat="43.26004" lon="-4.61945">
        <ele>99.4</ele>
        <time>2026-08-24T18:36:55.556+02:00</time>
      </trkpt>
      <trkpt lat="43.26017" lon="-4.61954">
        <ele>102.6</ele>
        <time>2026-08-24T18:36:55.556+02:00</time>
      </trkpt>
      <trkpt lat="43.26047" lon="-4.61962">
        <ele>102.6</ele>
        <time>2026-08-24T18:36:55.556+02:00</time>
      </trkpt>
      <trkpt lat="43.26079" lon="-4.61954">
        <ele>101.5</ele>
        <time>2026-08-24T18:36:55.556+02:00</time>
      </trkpt>
      <trkpt lat="43.26096" lon="-4.61958">
        <ele>98.7</ele>
        <time>2026-08-24T18:36:55.556+02:00</time>
      </trkpt>
      <trkpt lat="43.26137" lon="-4.6199">
        <ele>96.5</ele>
        <time>2026-08-24T18:36:55.556+02:00</time>
      </trkpt>
      <trkpt lat="43.26171" lon="-4.62029">
        <ele>96.8</ele>
        <time>2026-08-24T18:36:55.556+02:00</time>
      </trkpt>
      <trkpt lat="43.26195" lon="-4.62055">
        <ele>93.4</ele>
        <time>2026-08-24T18:36:55.556+02:00</time>
      </trkpt>
      <trkpt lat="43.26285" lon="-4.62151">
        <ele>99.9</ele>
        <time>2026-08-24T18:36:55.556+02:00</time>
      </trkpt>
      <trkpt lat="43.2632" lon="-4.6217">
        <ele>97.1</ele>
        <time>2026-08-24T18:36:55.556+02:00</time>
      </trkpt>
      <trkpt lat="43.26343" lon="-4.62196">
        <ele>93.7</ele>
        <time>2026-08-24T18:36:55.556+02:00</time>
      </trkpt>
      <trkpt lat="43.26377" lon="-4.62295">
        <ele>93.7</ele>
        <time>2026-08-24T18:36:55.556+02:00</time>
      </trkpt>
      <trkpt lat="43.26416" lon="-4.62333">
        <ele>89.4</ele>
        <time>2026-08-24T18:36:55.556+02:00</time>
      </trkpt>
      <trkpt lat="43.26442" lon="-4.62372">
        <ele>90.7</ele>
        <time>2026-08-24T18:36:55.556+02:00</time>
      </trkpt>
      <trkpt lat="43.26461" lon="-4.62441">
        <ele>88.6</ele>
        <time>2026-08-24T18:36:55.556+02:00</time>
      </trkpt>
      <trkpt lat="43.2647" lon="-4.62475">
        <ele>87.3</ele>
        <time>2026-08-24T18:36:55.556+02:00</time>
      </trkpt>
      <trkpt lat="43.26483" lon="-4.62522">
        <ele>90.6</ele>
        <time>2026-08-24T18:36:55.556+02:00</time>
      </trkpt>
      <trkpt lat="43.26502" lon="-4.62595">
        <ele>87.9</ele>
        <time>2026-08-24T18:36:55.556+02:00</time>
      </trkpt>
      <trkpt lat="43.26506" lon="-4.6266">
        <ele>88.8</ele>
        <time>2026-08-24T18:36:55.556+02:00</time>
      </trkpt>
      <trkpt lat="43.2651" lon="-4.62707">
        <ele>86</ele>
        <time>2026-08-24T18:36:55.556+02:00</time>
      </trkpt>
      <trkpt lat="43.2653" lon="-4.62793">
        <ele>81.1</ele>
        <time>2026-08-24T18:36:55.556+02:00</time>
      </trkpt>
      <trkpt lat="43.26541" lon="-4.62863">
        <ele>85.7</ele>
        <time>2026-08-24T18:36:55.556+02:00</time>
      </trkpt>
      <trkpt lat="43.26592" lon="-4.62964">
        <ele>77.9</ele>
        <time>2026-08-24T18:36:55.556+02:00</time>
      </trkpt>
      <trkpt lat="43.26609" lon="-4.63014">
        <ele>77.1</ele>
        <time>2026-08-24T18:36:55.556+02:00</time>
      </trkpt>
      <trkpt lat="43.26637" lon="-4.63112">
        <ele>77.6</ele>
        <time>2026-08-24T18:36:55.556+02:00</time>
      </trkpt>
      <trkpt lat="43.26659" lon="-4.63151">
        <ele>79.1</ele>
        <time>2026-08-24T18:36:55.556+02:00</time>
      </trkpt>
      <trkpt lat="43.26697" lon="-4.6317">
        <ele>71.7</ele>
        <time>2026-08-24T18:36:55.556+02:00</time>
      </trkpt>
      <trkpt lat="43.26725" lon="-4.63172">
        <ele>72.7</ele>
        <time>2026-08-24T18:36:55.556+02:00</time>
      </trkpt>
      <trkpt lat="43.26749" lon="-4.63172">
        <ele>74.5</ele>
        <time>2026-08-24T18:36:55.556+02:00</time>
      </trkpt>
      <trkpt lat="43.26764" lon="-4.63181">
        <ele>73.7</ele>
        <time>2026-08-24T18:36:55.556+02:00</time>
      </trkpt>
      <trkpt lat="43.26772" lon="-4.63194">
        <ele>73.7</ele>
        <time>2026-08-24T18:36:55.556+02:00</time>
      </trkpt>
      <trkpt lat="43.26789" lon="-4.63248">
        <ele>74.9</ele>
        <time>2026-08-24T18:36:55.556+02:00</time>
      </trkpt>
      <trkpt lat="43.26802" lon="-4.63312">
        <ele>74.6</ele>
        <time>2026-08-24T18:36:55.556+02:00</time>
      </trkpt>
      <trkpt lat="43.26802" lon="-4.63393">
        <ele>72.4</ele>
        <time>2026-08-24T18:36:55.556+02:00</time>
      </trkpt>
      <trkpt lat="43.26815" lon="-4.63447">
        <ele>73.7</ele>
        <time>2026-08-24T18:36:55.556+02:00</time>
      </trkpt>
      <trkpt lat="43.26832" lon="-4.63484">
        <ele>73.7</ele>
        <time>2026-08-24T18:36:55.556+02:00</time>
      </trkpt>
      <trkpt lat="43.26871" lon="-4.63501">
        <ele>70.4</ele>
        <time>2026-08-24T18:36:55.556+02:00</time>
      </trkpt>
      <trkpt lat="43.26901" lon="-4.63507">
        <ele>70.2</ele>
        <time>2026-08-24T18:36:55.556+02:00</time>
      </trkpt>
      <trkpt lat="43.26935" lon="-4.63531">
        <ele>70.9</ele>
        <time>2026-08-24T18:36:55.556+02:00</time>
      </trkpt>
      <trkpt lat="43.26972" lon="-4.63563">
        <ele>71.6</ele>
        <time>2026-08-24T18:36:55.556+02:00</time>
      </trkpt>
      <trkpt lat="43.27051" lon="-4.63636">
        <ele>74.6</ele>
        <time>2026-08-24T18:36:55.556+02:00</time>
      </trkpt>
      <trkpt lat="43.27079" lon="-4.63653">
        <ele>86.9</ele>
        <time>2026-08-24T18:36:55.556+02:00</time>
      </trkpt>
      <trkpt lat="43.27195" lon="-4.63672">
        <ele>85.8</ele>
        <time>2026-08-24T18:36:55.556+02:00</time>
      </trkpt>
      <trkpt lat="43.27223" lon="-4.63679">
        <ele>90.8</ele>
        <time>2026-08-24T18:36:55.556+02:00</time>
      </trkpt>
      <trkpt lat="43.27283" lon="-4.63677">
        <ele>81.2</ele>
        <time>2026-08-24T18:36:55.556+02:00</time>
      </trkpt>
      <trkpt lat="43.27377" lon="-4.63718">
        <ele>75.5</ele>
        <time>2026-08-24T18:36:55.556+02:00</time>
      </trkpt>
      <trkpt lat="43.27416" lon="-4.63741">
        <ele>87.1</ele>
        <time>2026-08-24T18:36:55.556+02:00</time>
      </trkpt>
      <trkpt lat="43.27429" lon="-4.6375">
        <ele>97.6</ele>
        <time>2026-08-24T18:36:55.556+02:00</time>
      </trkpt>
      <trkpt lat="43.27457" lon="-4.63754">
        <ele>108.9</ele>
        <time>2026-08-24T18:36:55.556+02:00</time>
      </trkpt>
      <trkpt lat="43.2751" lon="-4.6372">
        <ele>80.7</ele>
        <time>2026-08-24T18:36:55.556+02:00</time>
      </trkpt>
      <trkpt lat="43.27551" lon="-4.63711">
        <ele>85</ele>
        <time>2026-08-24T18:36:55.556+02:00</time>
      </trkpt>
      <trkpt lat="43.27579" lon="-4.63662">
        <ele>72</ele>
        <time>2026-08-24T18:36:55.556+02:00</time>
      </trkpt>
      <trkpt lat="43.2762" lon="-4.63634">
        <ele>75.4</ele>
        <time>2026-08-24T18:36:55.556+02:00</time>
      </trkpt>
      <trkpt lat="43.27661" lon="-4.63587">
        <ele>70.8</ele>
        <time>2026-08-24T18:36:55.556+02:00</time>
      </trkpt>
      <trkpt lat="43.27671" lon="-4.63578">
        <ele>71.7</ele>
        <time>2026-08-24T18:36:55.556+02:00</time>
      </trkpt>
      <trkpt lat="43.2771" lon="-4.63539">
        <ele>72.5</ele>
        <time>2026-08-24T18:36:55.556+02:00</time>
      </trkpt>
      <trkpt lat="43.27734" lon="-4.63501">
        <ele>74.8</ele>
        <time>2026-08-24T18:36:55.556+02:00</time>
      </trkpt>
      <trkpt lat="43.27785" lon="-4.63353">
        <ele>64.1</ele>
        <time>2026-08-24T18:36:55.556+02:00</time>
      </trkpt>
      <trkpt lat="43.27792" lon="-4.63306">
        <ele>66.4</ele>
        <time>2026-08-24T18:36:55.556+02:00</time>
      </trkpt>
      <trkpt lat="43.27792" lon="-4.63239">
        <ele>68</ele>
        <time>2026-08-24T18:36:55.556+02:00</time>
      </trkpt>
      <trkpt lat="43.27792" lon="-4.6323">
        <ele>67.7</ele>
        <time>2026-08-24T18:36:55.556+02:00</time>
      </trkpt>
      <trkpt lat="43.27785" lon="-4.63196">
        <ele>65.1</ele>
        <time>2026-08-24T18:36:55.556+02:00</time>
      </trkpt>
      <trkpt lat="43.27787" lon="-4.63181">
        <ele>64.9</ele>
        <time>2026-08-24T18:36:55.556+02:00</time>
      </trkpt>
      <trkpt lat="43.27809" lon="-4.63125">
        <ele>65.6</ele>
        <time>2026-08-24T18:36:55.556+02:00</time>
      </trkpt>
      <trkpt lat="43.2783" lon="-4.63106">
        <ele>65.8</ele>
        <time>2026-08-24T18:36:55.556+02:00</time>
      </trkpt>
      <trkpt lat="43.27867" lon="-4.63095">
        <ele>65.8</ele>
        <time>2026-08-24T18:36:55.556+02:00</time>
      </trkpt>
      <trkpt lat="43.27937" lon="-4.63076">
        <ele>63.2</ele>
        <time>2026-08-24T18:36:55.556+02:00</time>
      </trkpt>
      <trkpt lat="43.2798" lon="-4.63063">
        <ele>64.1</ele>
        <time>2026-08-24T18:36:55.556+02:00</time>
      </trkpt>
      <trkpt lat="43.28004" lon="-4.63039">
        <ele>63</ele>
        <time>2026-08-24T18:36:55.556+02:00</time>
      </trkpt>
      <trkpt lat="43.28066" lon="-4.62874">
        <ele>65.6</ele>
        <time>2026-08-24T18:36:55.556+02:00</time>
      </trkpt>
      <trkpt lat="43.28094" lon="-4.62816">
        <ele>65.5</ele>
        <time>2026-08-24T18:36:55.556+02:00</time>
      </trkpt>
      <trkpt lat="43.28109" lon="-4.62788">
        <ele>63.2</ele>
        <time>2026-08-24T18:36:55.556+02:00</time>
      </trkpt>
      <trkpt lat="43.28141" lon="-4.62735">
        <ele>62.5</ele>
        <time>2026-08-24T18:36:55.556+02:00</time>
      </trkpt>
      <trkpt lat="43.28161" lon="-4.62713">
        <ele>62.8</ele>
        <time>2026-08-24T18:36:55.556+02:00</time>
      </trkpt>
      <trkpt lat="43.28203" lon="-4.62696">
        <ele>61</ele>
        <time>2026-08-24T18:36:55.556+02:00</time>
      </trkpt>
      <trkpt lat="43.28244" lon="-4.62673">
        <ele>60.1</ele>
        <time>2026-08-24T18:36:55.556+02:00</time>
      </trkpt>
      <trkpt lat="43.28283" lon="-4.62662">
        <ele>58.4</ele>
        <time>2026-08-24T18:36:55.556+02:00</time>
      </trkpt>
      <trkpt lat="43.28379" lon="-4.62649">
        <ele>60</ele>
        <time>2026-08-24T18:36:55.556+02:00</time>
      </trkpt>
      <trkpt lat="43.28463" lon="-4.62645">
        <ele>59.3</ele>
        <time>2026-08-24T18:36:55.556+02:00</time>
      </trkpt>
      <trkpt lat="43.28545" lon="-4.62615">
        <ele>55.8</ele>
        <time>2026-08-24T18:36:55.556+02:00</time>
      </trkpt>
      <trkpt lat="43.28596" lon="-4.62582">
        <ele>56.8</ele>
        <time>2026-08-24T18:36:55.556+02:00</time>
      </trkpt>
      <trkpt lat="43.28639" lon="-4.62546">
        <ele>56</ele>
        <time>2026-08-24T18:36:55.556+02:00</time>
      </trkpt>
      <trkpt lat="43.28742" lon="-4.62482">
        <ele>55.9</ele>
        <time>2026-08-24T18:36:55.556+02:00</time>
      </trkpt>
      <trkpt lat="43.28841" lon="-4.624">
        <ele>57.9</ele>
        <time>2026-08-24T18:36:55.556+02:00</time>
      </trkpt>
      <trkpt lat="43.28862" lon="-4.62364">
        <ele>56</ele>
        <time>2026-08-24T18:36:55.556+02:00</time>
      </trkpt>
      <trkpt lat="43.28875" lon="-4.62318">
        <ele>57.8</ele>
        <time>2026-08-24T18:36:55.556+02:00</time>
      </trkpt>
      <trkpt lat="43.28877" lon="-4.62252">
        <ele>55.5</ele>
        <time>2026-08-24T18:36:55.556+02:00</time>
      </trkpt>
      <trkpt lat="43.28864" lon="-4.62185">
        <ele>53.3</ele>
        <time>2026-08-24T18:36:55.556+02:00</time>
      </trkpt>
      <trkpt lat="43.28849" lon="-4.62127">
        <ele>54.2</ele>
        <time>2026-08-24T18:36:55.556+02:00</time>
      </trkpt>
      <trkpt lat="43.28834" lon="-4.62061">
        <ele>52.5</ele>
        <time>2026-08-24T18:36:55.556+02:00</time>
      </trkpt>
      <trkpt lat="43.28836" lon="-4.62031">
        <ele>54.1</ele>
        <time>2026-08-24T18:36:55.556+02:00</time>
      </trkpt>
      <trkpt lat="43.28856" lon="-4.61988">
        <ele>55.7</ele>
        <time>2026-08-24T18:36:55.556+02:00</time>
      </trkpt>
      <trkpt lat="43.28899" lon="-4.61937">
        <ele>51.8</ele>
        <time>2026-08-24T18:36:55.556+02:00</time>
      </trkpt>
      <trkpt lat="43.28931" lon="-4.61919">
        <ele>51.7</ele>
        <time>2026-08-24T18:36:55.556+02:00</time>
      </trkpt>
      <trkpt lat="43.28991" lon="-4.61915">
        <ele>51.5</ele>
        <time>2026-08-24T18:36:55.556+02:00</time>
      </trkpt>
      <trkpt lat="43.29023" lon="-4.61913">
        <ele>52.5</ele>
        <time>2026-08-24T18:36:55.556+02:00</time>
      </trkpt>
      <trkpt lat="43.29047" lon="-4.61904">
        <ele>54.8</ele>
        <time>2026-08-24T18:36:55.556+02:00</time>
      </trkpt>
      <trkpt lat="43.29075" lon="-4.61881">
        <ele>54.6</ele>
        <time>2026-08-24T18:36:55.556+02:00</time>
      </trkpt>
      <trkpt lat="43.29088" lon="-4.61861">
        <ele>52.9</ele>
        <time>2026-08-24T18:36:55.556+02:00</time>
      </trkpt>
      <trkpt lat="43.29092" lon="-4.61825">
        <ele>54.5</ele>
        <time>2026-08-24T18:36:55.556+02:00</time>
      </trkpt>
      <trkpt lat="43.29111" lon="-4.61698">
        <ele>52.1</ele>
        <time>2026-08-24T18:36:55.556+02:00</time>
      </trkpt>
      <trkpt lat="43.29113" lon="-4.61679">
        <ele>53</ele>
        <time>2026-08-24T18:36:55.556+02:00</time>
      </trkpt>
      <trkpt lat="43.29128" lon="-4.61606">
        <ele>53</ele>
        <time>2026-08-24T18:36:55.556+02:00</time>
      </trkpt>
      <trkpt lat="43.29143" lon="-4.61567">
        <ele>50.6</ele>
        <time>2026-08-24T18:36:55.556+02:00</time>
      </trkpt>
      <trkpt lat="43.29171" lon="-4.61522">
        <ele>49</ele>
        <time>2026-08-24T18:36:55.557+02:00</time>
      </trkpt>
      <trkpt lat="43.29225" lon="-4.61497">
        <ele>48.9</ele>
        <time>2026-08-24T18:36:55.557+02:00</time>
      </trkpt>
      <trkpt lat="43.29242" lon="-4.61486">
        <ele>50.6</ele>
        <time>2026-08-24T18:36:55.557+02:00</time>
      </trkpt>
      <trkpt lat="43.29266" lon="-4.61454">
        <ele>51.4</ele>
        <time>2026-08-24T18:36:55.557+02:00</time>
      </trkpt>
      <trkpt lat="43.29281" lon="-4.61428">
        <ele>50.2</ele>
        <time>2026-08-24T18:36:55.557+02:00</time>
      </trkpt>
      <trkpt lat="43.29304" lon="-4.61346">
        <ele>48</ele>
        <time>2026-08-24T18:36:55.557+02:00</time>
      </trkpt>
      <trkpt lat="43.29328" lon="-4.6128">
        <ele>47.4</ele>
        <time>2026-08-24T18:36:55.557+02:00</time>
      </trkpt>
      <trkpt lat="43.2939" lon="-4.6122">
        <ele>46.9</ele>
        <time>2026-08-24T18:36:55.557+02:00</time>
      </trkpt>
      <trkpt lat="43.29416" lon="-4.61177">
        <ele>46.5</ele>
        <time>2026-08-24T18:36:55.557+02:00</time>
      </trkpt>
      <trkpt lat="43.29429" lon="-4.61136">
        <ele>49</ele>
        <time>2026-08-24T18:36:55.557+02:00</time>
      </trkpt>
      <trkpt lat="43.29459" lon="-4.60992">
        <ele>47.4</ele>
        <time>2026-08-24T18:36:55.557+02:00</time>
      </trkpt>
      <trkpt lat="43.29467" lon="-4.6096">
        <ele>44.6</ele>
        <time>2026-08-24T18:36:55.557+02:00</time>
      </trkpt>
      <trkpt lat="43.29493" lon="-4.60894">
        <ele>44.6</ele>
        <time>2026-08-24T18:36:55.557+02:00</time>
      </trkpt>
      <trkpt lat="43.29568" lon="-4.60776">
        <ele>47.1</ele>
        <time>2026-08-24T18:36:55.557+02:00</time>
      </trkpt>
      <trkpt lat="43.29611" lon="-4.60739">
        <ele>49.3</ele>
        <time>2026-08-24T18:36:55.557+02:00</time>
      </trkpt>
      <trkpt lat="43.29669" lon="-4.60722">
        <ele>44.7</ele>
        <time>2026-08-24T18:36:55.557+02:00</time>
      </trkpt>
      <trkpt lat="43.29727" lon="-4.60722">
        <ele>41.8</ele>
        <time>2026-08-24T18:36:55.557+02:00</time>
      </trkpt>
      <trkpt lat="43.29751" lon="-4.60733">
        <ele>45.8</ele>
        <time>2026-08-24T18:36:55.557+02:00</time>
      </trkpt>
      <trkpt lat="43.29787" lon="-4.6075">
        <ele>42.7</ele>
        <time>2026-08-24T18:36:55.557+02:00</time>
      </trkpt>
      <trkpt lat="43.29802" lon="-4.60743">
        <ele>41.7</ele>
        <time>2026-08-24T18:36:55.557+02:00</time>
      </trkpt>
      <trkpt lat="43.29819" lon="-4.60726">
        <ele>46</ele>
        <time>2026-08-24T18:36:55.557+02:00</time>
      </trkpt>
      <trkpt lat="43.29849" lon="-4.60722">
        <ele>45.4</ele>
        <time>2026-08-24T18:36:55.557+02:00</time>
      </trkpt>
      <trkpt lat="43.29858" lon="-4.6072">
        <ele>45.9</ele>
        <time>2026-08-24T18:36:55.557+02:00</time>
      </trkpt>
      <trkpt lat="43.29864" lon="-4.60718">
        <ele>46</ele>
        <time>2026-08-24T18:36:55.557+02:00</time>
      </trkpt>
      <trkpt lat="43.29907" lon="-4.60696">
        <ele>43.8</ele>
        <time>2026-08-24T18:36:55.557+02:00</time>
      </trkpt>
      <trkpt lat="43.29948" lon="-4.60668">
        <ele>45.2</ele>
        <time>2026-08-24T18:36:55.557+02:00</time>
      </trkpt>
      <trkpt lat="43.30032" lon="-4.60625">
        <ele>45.5</ele>
        <time>2026-08-24T18:36:55.557+02:00</time>
      </trkpt>
      <trkpt lat="43.30042" lon="-4.60623">
        <ele>46.9</ele>
        <time>2026-08-24T18:36:55.557+02:00</time>
      </trkpt>
      <trkpt lat="43.30115" lon="-4.60634">
        <ele>42.9</ele>
        <time>2026-08-24T18:36:55.557+02:00</time>
      </trkpt>
      <trkpt lat="43.30169" lon="-4.60636">
        <ele>43.2</ele>
        <time>2026-08-24T18:36:55.557+02:00</time>
      </trkpt>
      <trkpt lat="43.30199" lon="-4.6063">
        <ele>44.2</ele>
        <time>2026-08-24T18:36:55.557+02:00</time>
      </trkpt>
      <trkpt lat="43.30251" lon="-4.60604">
        <ele>44.7</ele>
        <time>2026-08-24T18:36:55.557+02:00</time>
      </trkpt>
      <trkpt lat="43.303" lon="-4.60565">
        <ele>42.3</ele>
        <time>2026-08-24T18:36:55.557+02:00</time>
      </trkpt>
      <trkpt lat="43.30377" lon="-4.60505">
        <ele>42.7</ele>
        <time>2026-08-24T18:36:55.557+02:00</time>
      </trkpt>
      <trkpt lat="43.30411" lon="-4.60495">
        <ele>42.5</ele>
        <time>2026-08-24T18:36:55.557+02:00</time>
      </trkpt>
      <trkpt lat="43.30446" lon="-4.60497">
        <ele>42.1</ele>
        <time>2026-08-24T18:36:55.557+02:00</time>
      </trkpt>
      <trkpt lat="43.30495" lon="-4.60505">
        <ele>46.1</ele>
        <time>2026-08-24T18:36:55.557+02:00</time>
      </trkpt>
      <trkpt lat="43.30527" lon="-4.60522">
        <ele>43.6</ele>
        <time>2026-08-24T18:36:55.557+02:00</time>
      </trkpt>
      <trkpt lat="43.30607" lon="-4.60623">
        <ele>43.4</ele>
        <time>2026-08-24T18:36:55.557+02:00</time>
      </trkpt>
      <trkpt lat="43.30639" lon="-4.6066">
        <ele>42.5</ele>
        <time>2026-08-24T18:36:55.557+02:00</time>
      </trkpt>
      <trkpt lat="43.30686" lon="-4.6069">
        <ele>43.6</ele>
        <time>2026-08-24T18:36:55.557+02:00</time>
      </trkpt>
      <trkpt lat="43.30742" lon="-4.60743">
        <ele>46.4</ele>
        <time>2026-08-24T18:36:55.557+02:00</time>
      </trkpt>
      <trkpt lat="43.30783" lon="-4.60763">
        <ele>43.7</ele>
        <time>2026-08-24T18:36:55.557+02:00</time>
      </trkpt>
      <trkpt lat="43.30817" lon="-4.60769">
        <ele>42.4</ele>
        <time>2026-08-24T18:36:55.557+02:00</time>
      </trkpt>
      <trkpt lat="43.30836" lon="-4.60769">
        <ele>43</ele>
        <time>2026-08-24T18:36:55.557+02:00</time>
      </trkpt>
      <trkpt lat="43.30916" lon="-4.60771">
        <ele>40.9</ele>
        <time>2026-08-24T18:36:55.557+02:00</time>
      </trkpt>
      <trkpt lat="43.3095" lon="-4.60795">
        <ele>44.2</ele>
        <time>2026-08-24T18:36:55.557+02:00</time>
      </trkpt>
      <trkpt lat="43.30974" lon="-4.60827">
        <ele>40.1</ele>
        <time>2026-08-24T18:36:55.557+02:00</time>
      </trkpt>
      <trkpt lat="43.31017" lon="-4.60902">
        <ele>37.2</ele>
        <time>2026-08-24T18:36:55.557+02:00</time>
      </trkpt>
      <trkpt lat="43.31032" lon="-4.60915">
        <ele>35</ele>
        <time>2026-08-24T18:36:55.557+02:00</time>
      </trkpt>
      <trkpt lat="43.31049" lon="-4.60911">
        <ele>34.1</ele>
        <time>2026-08-24T18:36:55.557+02:00</time>
      </trkpt>
      <trkpt lat="43.31102" lon="-4.60868">
        <ele>41.5</ele>
        <time>2026-08-24T18:36:55.557+02:00</time>
      </trkpt>
      <trkpt lat="43.31124" lon="-4.60859">
        <ele>39.7</ele>
        <time>2026-08-24T18:36:55.557+02:00</time>
      </trkpt>
      <trkpt lat="43.31165" lon="-4.60861">
        <ele>34.9</ele>
        <time>2026-08-24T18:36:55.557+02:00</time>
      </trkpt>
      <trkpt lat="43.31248" lon="-4.60883">
        <ele>37.3</ele>
        <time>2026-08-24T18:36:55.557+02:00</time>
      </trkpt>
      <trkpt lat="43.31289" lon="-4.60887">
        <ele>34.2</ele>
        <time>2026-08-24T18:36:55.557+02:00</time>
      </trkpt>
      <trkpt lat="43.31347" lon="-4.60879">
        <ele>37.9</ele>
        <time>2026-08-24T18:36:55.557+02:00</time>
      </trkpt>
      <trkpt lat="43.31409" lon="-4.60868">
        <ele>37.4</ele>
        <time>2026-08-24T18:36:55.557+02:00</time>
      </trkpt>
      <trkpt lat="43.31441" lon="-4.60849">
        <ele>36.1</ele>
        <time>2026-08-24T18:36:55.557+02:00</time>
      </trkpt>
      <trkpt lat="43.31463" lon="-4.60819">
        <ele>36</ele>
        <time>2026-08-24T18:36:55.557+02:00</time>
      </trkpt>
      <trkpt lat="43.3148" lon="-4.60754">
        <ele>36.3</ele>
        <time>2026-08-24T18:36:55.557+02:00</time>
      </trkpt>
      <trkpt lat="43.31491" lon="-4.60731">
        <ele>37.4</ele>
        <time>2026-08-24T18:36:55.557+02:00</time>
      </trkpt>
      <trkpt lat="43.31504" lon="-4.60716">
        <ele>37.2</ele>
        <time>2026-08-24T18:36:55.557+02:00</time>
      </trkpt>
      <trkpt lat="43.3154" lon="-4.60686">
        <ele>37.8</ele>
        <time>2026-08-24T18:36:55.557+02:00</time>
      </trkpt>
      <trkpt lat="43.31566" lon="-4.60671">
        <ele>37.8</ele>
        <time>2026-08-24T18:36:55.557+02:00</time>
      </trkpt>
      <trkpt lat="43.31587" lon="-4.60666">
        <ele>35.5</ele>
        <time>2026-08-24T18:36:55.557+02:00</time>
      </trkpt>
      <trkpt lat="43.31613" lon="-4.60677">
        <ele>33.6</ele>
        <time>2026-08-24T18:36:55.557+02:00</time>
      </trkpt>
      <trkpt lat="43.31684" lon="-4.60701">
        <ele>33.6</ele>
        <time>2026-08-24T18:36:55.557+02:00</time>
      </trkpt>
      <trkpt lat="43.31768" lon="-4.60713">
        <ele>34</ele>
        <time>2026-08-24T18:36:55.557+02:00</time>
      </trkpt>
      <trkpt lat="43.31798" lon="-4.60711">
        <ele>36.3</ele>
        <time>2026-08-24T18:36:55.557+02:00</time>
      </trkpt>
      <trkpt lat="43.31843" lon="-4.60707">
        <ele>35.1</ele>
        <time>2026-08-24T18:36:55.557+02:00</time>
      </trkpt>
      <trkpt lat="43.31868" lon="-4.60703">
        <ele>32.3</ele>
        <time>2026-08-24T18:36:55.557+02:00</time>
      </trkpt>
      <trkpt lat="43.31909" lon="-4.60671">
        <ele>33.9</ele>
        <time>2026-08-24T18:36:55.557+02:00</time>
      </trkpt>
      <trkpt lat="43.31941" lon="-4.60606">
        <ele>34.9</ele>
        <time>2026-08-24T18:36:55.557+02:00</time>
      </trkpt>
      <trkpt lat="43.31959" lon="-4.60589">
        <ele>34.9</ele>
        <time>2026-08-24T18:36:55.557+02:00</time>
      </trkpt>
      <trkpt lat="43.31991" lon="-4.6057">
        <ele>36.3</ele>
        <time>2026-08-24T18:36:55.557+02:00</time>
      </trkpt>
      <trkpt lat="43.32021" lon="-4.6054">
        <ele>33.3</ele>
        <time>2026-08-24T18:36:55.557+02:00</time>
      </trkpt>
      <trkpt lat="43.32055" lon="-4.60488">
        <ele>31.9</ele>
        <time>2026-08-24T18:36:55.557+02:00</time>
      </trkpt>
      <trkpt lat="43.32064" lon="-4.60458">
        <ele>31.9</ele>
        <time>2026-08-24T18:36:55.557+02:00</time>
      </trkpt>
      <trkpt lat="43.32059" lon="-4.60274">
        <ele>30.2</ele>
        <time>2026-08-24T18:36:55.557+02:00</time>
      </trkpt>
      <trkpt lat="43.32047" lon="-4.60121">
        <ele>31.5</ele>
        <time>2026-08-24T18:36:55.557+02:00</time>
      </trkpt>
      <trkpt lat="43.32042" lon="-4.60083">
        <ele>31.6</ele>
        <time>2026-08-24T18:36:55.557+02:00</time>
      </trkpt>
      <trkpt lat="43.32038" lon="-4.6004">
        <ele>31.8</ele>
        <time>2026-08-24T18:36:55.557+02:00</time>
      </trkpt>
      <trkpt lat="43.32027" lon="-4.59956">
        <ele>31</ele>
        <time>2026-08-24T18:36:55.557+02:00</time>
      </trkpt>
      <trkpt lat="43.32021" lon="-4.59877">
        <ele>33.9</ele>
        <time>2026-08-24T18:36:55.557+02:00</time>
      </trkpt>
      <trkpt lat="43.32017" lon="-4.59718">
        <ele>33.2</ele>
        <time>2026-08-24T18:36:55.557+02:00</time>
      </trkpt>
      <trkpt lat="43.32006" lon="-4.59484">
        <ele>30.4</ele>
        <time>2026-08-24T18:36:55.557+02:00</time>
      </trkpt>
      <trkpt lat="43.31999" lon="-4.59338">
        <ele>32</ele>
        <time>2026-08-24T18:36:55.557+02:00</time>
      </trkpt>
      <trkpt lat="43.32006" lon="-4.59278">
        <ele>31.4</ele>
        <time>2026-08-24T18:36:55.557+02:00</time>
      </trkpt>
      <trkpt lat="43.32027" lon="-4.59194">
        <ele>31.1</ele>
        <time>2026-08-24T18:36:55.557+02:00</time>
      </trkpt>
      <trkpt lat="43.32051" lon="-4.59121">
        <ele>29.9</ele>
        <time>2026-08-24T18:36:55.557+02:00</time>
      </trkpt>
      <trkpt lat="43.3207" lon="-4.59059">
        <ele>29.5</ele>
        <time>2026-08-24T18:36:55.557+02:00</time>
      </trkpt>
      <trkpt lat="43.32092" lon="-4.58999">
        <ele>29.8</ele>
        <time>2026-08-24T18:36:55.557+02:00</time>
      </trkpt>
      <trkpt lat="43.321" lon="-4.58967">
        <ele>30.9</ele>
        <time>2026-08-24T18:36:55.557+02:00</time>
      </trkpt>
      <trkpt lat="43.32188" lon="-4.58705">
        <ele>24.7</ele>
        <time>2026-08-24T18:36:55.557+02:00</time>
      </trkpt>
      <trkpt lat="43.32257" lon="-4.58544">
        <ele>23</ele>
        <time>2026-08-24T18:36:55.557+02:00</time>
      </trkpt>
      <trkpt lat="43.3231" lon="-4.58469">
        <ele>23.8</ele>
        <time>2026-08-24T18:36:55.557+02:00</time>
      </trkpt>
      <trkpt lat="43.32315" lon="-4.58463">
        <ele>23.8</ele>
        <time>2026-08-24T18:36:55.557+02:00</time>
      </trkpt>
      <trkpt lat="43.32368" lon="-4.58413">
        <ele>24.1</ele>
        <time>2026-08-24T18:36:55.557+02:00</time>
      </trkpt>
      <trkpt lat="43.32396" lon="-4.58385">
        <ele>24.1</ele>
        <time>2026-08-24T18:36:55.557+02:00</time>
      </trkpt>
      <trkpt lat="43.32407" lon="-4.58379">
        <ele>24.4</ele>
        <time>2026-08-24T18:36:55.557+02:00</time>
      </trkpt>
      <trkpt lat="43.32446" lon="-4.58364">
        <ele>24.8</ele>
        <time>2026-08-24T18:36:55.557+02:00</time>
      </trkpt>
      <trkpt lat="43.32478" lon="-4.58364">
        <ele>24.2</ele>
        <time>2026-08-24T18:36:55.557+02:00</time>
      </trkpt>
      <trkpt lat="43.32566" lon="-4.58396">
        <ele>23.8</ele>
        <time>2026-08-24T18:36:55.557+02:00</time>
      </trkpt>
      <trkpt lat="43.32579" lon="-4.58405">
        <ele>23.9</ele>
        <time>2026-08-24T18:36:55.557+02:00</time>
      </trkpt>
      <trkpt lat="43.32613" lon="-4.58437">
        <ele>25.3</ele>
        <time>2026-08-24T18:36:55.557+02:00</time>
      </trkpt>
      <trkpt lat="43.32626" lon="-4.58441">
        <ele>25.7</ele>
        <time>2026-08-24T18:36:55.557+02:00</time>
      </trkpt>
      <trkpt lat="43.32632" lon="-4.58488">
        <ele>23.7</ele>
        <time>2026-08-24T18:36:55.558+02:00</time>
      </trkpt>
      <trkpt lat="43.32639" lon="-4.58514">
        <ele>23.5</ele>
        <time>2026-08-24T18:36:55.558+02:00</time>
      </trkpt>
      <trkpt lat="43.32645" lon="-4.58546">
        <ele>20.3</ele>
        <time>2026-08-24T18:36:55.558+02:00</time>
      </trkpt>
      <trkpt lat="43.32658" lon="-4.58602">
        <ele>21.7</ele>
        <time>2026-08-24T18:36:55.558+02:00</time>
      </trkpt>
      <trkpt lat="43.32662" lon="-4.58623">
        <ele>23.8</ele>
        <time>2026-08-24T18:36:55.558+02:00</time>
      </trkpt>
      <trkpt lat="43.32667" lon="-4.58651">
        <ele>26</ele>
        <time>2026-08-24T18:36:55.558+02:00</time>
      </trkpt>
      <trkpt lat="43.32667" lon="-4.58656">
        <ele>26</ele>
        <time>2026-08-24T18:36:55.558+02:00</time>
      </trkpt>
      <trkpt lat="43.32675" lon="-4.58694">
        <ele>28.9</ele>
        <time>2026-08-24T18:36:55.558+02:00</time>
      </trkpt>
      <trkpt lat="43.32707" lon="-4.58812">
        <ele>31.4</ele>
        <time>2026-08-24T18:36:55.558+02:00</time>
      </trkpt>
      <trkpt lat="43.32737" lon="-4.58956">
        <ele>31.3</ele>
        <time>2026-08-24T18:36:55.558+02:00</time>
      </trkpt>
      <trkpt lat="43.32742" lon="-4.59029">
        <ele>26.9</ele>
        <time>2026-08-24T18:36:55.558+02:00</time>
      </trkpt>
      <trkpt lat="43.32725" lon="-4.59087">
        <ele>23.9</ele>
        <time>2026-08-24T18:36:55.558+02:00</time>
      </trkpt>
      <trkpt lat="43.32682" lon="-4.59166">
        <ele>22</ele>
        <time>2026-08-24T18:36:55.558+02:00</time>
      </trkpt>
      <trkpt lat="43.32493" lon="-4.59492">
        <ele>24.2</ele>
        <time>2026-08-24T18:36:55.558+02:00</time>
      </trkpt>
      <trkpt lat="43.32448" lon="-4.59563">
        <ele>27.6</ele>
        <time>2026-08-24T18:36:55.558+02:00</time>
      </trkpt>
      <trkpt lat="43.32424" lon="-4.59583">
        <ele>29.4</ele>
        <time>2026-08-24T18:36:55.558+02:00</time>
      </trkpt>
      <trkpt lat="43.32403" lon="-4.59593">
        <ele>31.5</ele>
        <time>2026-08-24T18:36:55.558+02:00</time>
      </trkpt>
      <trkpt lat="43.32328" lon="-4.59613">
        <ele>33</ele>
        <time>2026-08-24T18:36:55.558+02:00</time>
      </trkpt>
      <trkpt lat="43.32304" lon="-4.59626">
        <ele>33</ele>
        <time>2026-08-24T18:36:55.558+02:00</time>
      </trkpt>
      <trkpt lat="43.32285" lon="-4.59645">
        <ele>33.8</ele>
        <time>2026-08-24T18:36:55.558+02:00</time>
      </trkpt>
      <trkpt lat="43.32265" lon="-4.59671">
        <ele>34.3</ele>
        <time>2026-08-24T18:36:55.558+02:00</time>
      </trkpt>
      <trkpt lat="43.32246" lon="-4.59711">
        <ele>35.9</ele>
        <time>2026-08-24T18:36:55.558+02:00</time>
      </trkpt>
      <trkpt lat="43.32238" lon="-4.5975">
        <ele>36.2</ele>
        <time>2026-08-24T18:36:55.558+02:00</time>
      </trkpt>
      <trkpt lat="43.32231" lon="-4.59817">
        <ele>39.1</ele>
        <time>2026-08-24T18:36:55.558+02:00</time>
      </trkpt>
      <trkpt lat="43.32229" lon="-4.59945">
        <ele>42.7</ele>
        <time>2026-08-24T18:36:55.558+02:00</time>
      </trkpt>
      <trkpt lat="43.32233" lon="-4.59984">
        <ele>44.6</ele>
        <time>2026-08-24T18:36:55.558+02:00</time>
      </trkpt>
      <trkpt lat="43.32248" lon="-4.60031">
        <ele>41</ele>
        <time>2026-08-24T18:36:55.558+02:00</time>
      </trkpt>
      <trkpt lat="43.32289" lon="-4.60115">
        <ele>35.5</ele>
        <time>2026-08-24T18:36:55.558+02:00</time>
      </trkpt>
      <trkpt lat="43.32298" lon="-4.60158">
        <ele>32.6</ele>
        <time>2026-08-24T18:36:55.558+02:00</time>
      </trkpt>
      <trkpt lat="43.323" lon="-4.60226">
        <ele>33.5</ele>
        <time>2026-08-24T18:36:55.558+02:00</time>
      </trkpt>
      <trkpt lat="43.32289" lon="-4.60306">
        <ele>39.5</ele>
        <time>2026-08-24T18:36:55.558+02:00</time>
      </trkpt>
      <trkpt lat="43.32272" lon="-4.60398">
        <ele>36.4</ele>
        <time>2026-08-24T18:36:55.558+02:00</time>
      </trkpt>
      <trkpt lat="43.3225" lon="-4.60503">
        <ele>34.4</ele>
        <time>2026-08-24T18:36:55.558+02:00</time>
      </trkpt>
      <trkpt lat="43.32248" lon="-4.60568">
        <ele>33.8</ele>
        <time>2026-08-24T18:36:55.558+02:00</time>
      </trkpt>
      <trkpt lat="43.32259" lon="-4.60664">
        <ele>36.3</ele>
        <time>2026-08-24T18:36:55.558+02:00</time>
      </trkpt>
      <trkpt lat="43.32257" lon="-4.60728">
        <ele>35.7</ele>
        <time>2026-08-24T18:36:55.558+02:00</time>
      </trkpt>
      <trkpt lat="43.32248" lon="-4.60825">
        <ele>35.6</ele>
        <time>2026-08-24T18:36:55.558+02:00</time>
      </trkpt>
      <trkpt lat="43.32227" lon="-4.60911">
        <ele>37.5</ele>
        <time>2026-08-24T18:36:55.558+02:00</time>
      </trkpt>
      <trkpt lat="43.32214" lon="-4.6102">
        <ele>39.8</ele>
        <time>2026-08-24T18:36:55.558+02:00</time>
      </trkpt>
      <trkpt lat="43.32199" lon="-4.61067">
        <ele>41</ele>
        <time>2026-08-24T18:36:55.558+02:00</time>
      </trkpt>
      <trkpt lat="43.32184" lon="-4.61089">
        <ele>39.2</ele>
        <time>2026-08-24T18:36:55.558+02:00</time>
      </trkpt>
      <trkpt lat="43.32143" lon="-4.61125">
        <ele>38.1</ele>
        <time>2026-08-24T18:36:55.558+02:00</time>
      </trkpt>
      <trkpt lat="43.32042" lon="-4.61149">
        <ele>38.8</ele>
        <time>2026-08-24T18:36:55.558+02:00</time>
      </trkpt>
      <trkpt lat="43.32006" lon="-4.61183">
        <ele>40.5</ele>
        <time>2026-08-24T18:36:55.558+02:00</time>
      </trkpt>
      <trkpt lat="43.31956" lon="-4.61256">
        <ele>44.6</ele>
        <time>2026-08-24T18:36:55.558+02:00</time>
      </trkpt>
      <trkpt lat="43.31875" lon="-4.61351">
        <ele>44.1</ele>
        <time>2026-08-24T18:36:55.558+02:00</time>
      </trkpt>
      <trkpt lat="43.31828" lon="-4.61407">
        <ele>45.2</ele>
        <time>2026-08-24T18:36:55.558+02:00</time>
      </trkpt>
      <trkpt lat="43.31804" lon="-4.61445">
        <ele>42.6</ele>
        <time>2026-08-24T18:36:55.558+02:00</time>
      </trkpt>
      <trkpt lat="43.31759" lon="-4.61567">
        <ele>46.7</ele>
        <time>2026-08-24T18:36:55.558+02:00</time>
      </trkpt>
      <trkpt lat="43.31748" lon="-4.6161">
        <ele>43.9</ele>
        <time>2026-08-24T18:36:55.558+02:00</time>
      </trkpt>
      <trkpt lat="43.31748" lon="-4.61638">
        <ele>44.7</ele>
        <time>2026-08-24T18:36:55.558+02:00</time>
      </trkpt>
      <trkpt lat="43.31761" lon="-4.61711">
        <ele>50.1</ele>
        <time>2026-08-24T18:36:55.558+02:00</time>
      </trkpt>
      <trkpt lat="43.31761" lon="-4.61823">
        <ele>46.9</ele>
        <time>2026-08-24T18:36:55.558+02:00</time>
      </trkpt>
      <trkpt lat="43.31774" lon="-4.61883">
        <ele>43.2</ele>
        <time>2026-08-24T18:36:55.558+02:00</time>
      </trkpt>
      <trkpt lat="43.31806" lon="-4.61969">
        <ele>44.2</ele>
        <time>2026-08-24T18:36:55.558+02:00</time>
      </trkpt>
      <trkpt lat="43.31828" lon="-4.62057">
        <ele>42.9</ele>
        <time>2026-08-24T18:36:55.558+02:00</time>
      </trkpt>
      <trkpt lat="43.31847" lon="-4.62134">
        <ele>46.6</ele>
        <time>2026-08-24T18:36:55.558+02:00</time>
      </trkpt>
      <trkpt lat="43.31864" lon="-4.62179">
        <ele>45</ele>
        <time>2026-08-24T18:36:55.558+02:00</time>
      </trkpt>
      <trkpt lat="43.31907" lon="-4.62254">
        <ele>46.7</ele>
        <time>2026-08-24T18:36:55.558+02:00</time>
      </trkpt>
      <trkpt lat="43.31929" lon="-4.62293">
        <ele>48</ele>
        <time>2026-08-24T18:36:55.558+02:00</time>
      </trkpt>
      <trkpt lat="43.31971" lon="-4.62409">
        <ele>44.4</ele>
        <time>2026-08-24T18:36:55.558+02:00</time>
      </trkpt>
      <trkpt lat="43.31976" lon="-4.62458">
        <ele>45.7</ele>
        <time>2026-08-24T18:36:55.558+02:00</time>
      </trkpt>
      <trkpt lat="43.31967" lon="-4.6258">
        <ele>46.1</ele>
        <time>2026-08-24T18:36:55.558+02:00</time>
      </trkpt>
      <trkpt lat="43.31961" lon="-4.62666">
        <ele>47.1</ele>
        <time>2026-08-24T18:36:55.558+02:00</time>
      </trkpt>
      <trkpt lat="43.3195" lon="-4.62771">
        <ele>47</ele>
        <time>2026-08-24T18:36:55.558+02:00</time>
      </trkpt>
      <trkpt lat="43.31952" lon="-4.62814">
        <ele>46.3</ele>
        <time>2026-08-24T18:36:55.558+02:00</time>
      </trkpt>
      <trkpt lat="43.31959" lon="-4.62896">
        <ele>47</ele>
        <time>2026-08-24T18:36:55.558+02:00</time>
      </trkpt>
      <trkpt lat="43.31986" lon="-4.6299">
        <ele>50.8</ele>
        <time>2026-08-24T18:36:55.558+02:00</time>
      </trkpt>
      <trkpt lat="43.32017" lon="-4.63065">
        <ele>55.7</ele>
        <time>2026-08-24T18:36:55.558+02:00</time>
      </trkpt>
      <trkpt lat="43.32029" lon="-4.63265">
        <ele>46.2</ele>
        <time>2026-08-24T18:36:55.558+02:00</time>
      </trkpt>
      <trkpt lat="43.32055" lon="-4.63363">
        <ele>47</ele>
        <time>2026-08-24T18:36:55.558+02:00</time>
      </trkpt>
      <trkpt lat="43.32094" lon="-4.63458">
        <ele>48.1</ele>
        <time>2026-08-24T18:36:55.558+02:00</time>
      </trkpt>
      <trkpt lat="43.32147" lon="-4.63524">
        <ele>51.7</ele>
        <time>2026-08-24T18:36:55.558+02:00</time>
      </trkpt>
      <trkpt lat="43.32182" lon="-4.63574">
        <ele>51.5</ele>
        <time>2026-08-24T18:36:55.558+02:00</time>
      </trkpt>
      <trkpt lat="43.32233" lon="-4.63675">
        <ele>55</ele>
        <time>2026-08-24T18:36:55.558+02:00</time>
      </trkpt>
      <trkpt lat="43.32278" lon="-4.63784">
        <ele>48</ele>
        <time>2026-08-24T18:36:55.558+02:00</time>
      </trkpt>
      <trkpt lat="43.32304" lon="-4.63821">
        <ele>48.9</ele>
        <time>2026-08-24T18:36:55.558+02:00</time>
      </trkpt>
      <trkpt lat="43.32422" lon="-4.63908">
        <ele>48.2</ele>
        <time>2026-08-24T18:36:55.558+02:00</time>
      </trkpt>
      <trkpt lat="43.32452" lon="-4.63951">
        <ele>48.5</ele>
        <time>2026-08-24T18:36:55.558+02:00</time>
      </trkpt>
      <trkpt lat="43.32489" lon="-4.64029">
        <ele>47.4</ele>
        <time>2026-08-24T18:36:55.558+02:00</time>
      </trkpt>
      <trkpt lat="43.32559" lon="-4.64198">
        <ele>43.8</ele>
        <time>2026-08-24T18:36:55.558+02:00</time>
      </trkpt>
      <trkpt lat="43.32589" lon="-4.64254">
        <ele>43.2</ele>
        <time>2026-08-24T18:36:55.558+02:00</time>
      </trkpt>
      <trkpt lat="43.32613" lon="-4.64295">
        <ele>43</ele>
        <time>2026-08-24T18:36:55.558+02:00</time>
      </trkpt>
      <trkpt lat="43.32632" lon="-4.64329">
        <ele>43.4</ele>
        <time>2026-08-24T18:36:55.558+02:00</time>
      </trkpt>
      <trkpt lat="43.3265" lon="-4.64368">
        <ele>45</ele>
        <time>2026-08-24T18:36:55.558+02:00</time>
      </trkpt>
      <trkpt lat="43.32665" lon="-4.64398">
        <ele>42.7</ele>
        <time>2026-08-24T18:36:55.558+02:00</time>
      </trkpt>
      <trkpt lat="43.3269" lon="-4.6446">
        <ele>44.6</ele>
        <time>2026-08-24T18:36:55.558+02:00</time>
      </trkpt>
      <trkpt lat="43.32712" lon="-4.64526">
        <ele>44.6</ele>
        <time>2026-08-24T18:36:55.558+02:00</time>
      </trkpt>
      <trkpt lat="43.3272" lon="-4.64565">
        <ele>41</ele>
        <time>2026-08-24T18:36:55.558+02:00</time>
      </trkpt>
      <trkpt lat="43.32748" lon="-4.64767">
        <ele>41.5</ele>
        <time>2026-08-24T18:36:55.558+02:00</time>
      </trkpt>
      <trkpt lat="43.32755" lon="-4.64825">
        <ele>43.4</ele>
        <time>2026-08-24T18:36:55.558+02:00</time>
      </trkpt>
      <trkpt lat="43.32761" lon="-4.64876">
        <ele>45</ele>
        <time>2026-08-24T18:36:55.558+02:00</time>
      </trkpt>
      <trkpt lat="43.32763" lon="-4.64953">
        <ele>42</ele>
        <time>2026-08-24T18:36:55.558+02:00</time>
      </trkpt>
      <trkpt lat="43.32759" lon="-4.65024">
        <ele>43.5</ele>
        <time>2026-08-24T18:36:55.559+02:00</time>
      </trkpt>
      <trkpt lat="43.32755" lon="-4.65132">
        <ele>45.3</ele>
        <time>2026-08-24T18:36:55.559+02:00</time>
      </trkpt>
      <trkpt lat="43.32763" lon="-4.652">
        <ele>47.3</ele>
        <time>2026-08-24T18:36:55.559+02:00</time>
      </trkpt>
      <trkpt lat="43.32793" lon="-4.65284">
        <ele>50.1</ele>
        <time>2026-08-24T18:36:55.559+02:00</time>
      </trkpt>
      <trkpt lat="43.32802" lon="-4.65325">
        <ele>43.7</ele>
        <time>2026-08-24T18:36:55.559+02:00</time>
      </trkpt>
      <trkpt lat="43.32804" lon="-4.65361">
        <ele>43.6</ele>
        <time>2026-08-24T18:36:55.559+02:00</time>
      </trkpt>
      <trkpt lat="43.32791" lon="-4.65477">
        <ele>44.3</ele>
        <time>2026-08-24T18:36:55.559+02:00</time>
      </trkpt>
      <trkpt lat="43.32802" lon="-4.65533">
        <ele>45.6</ele>
        <time>2026-08-24T18:36:55.559+02:00</time>
      </trkpt>
      <trkpt lat="43.32819" lon="-4.65601">
        <ele>49</ele>
        <time>2026-08-24T18:36:55.559+02:00</time>
      </trkpt>
      <trkpt lat="43.32864" lon="-4.65732">
        <ele>46.8</ele>
        <time>2026-08-24T18:36:55.559+02:00</time>
      </trkpt>
      <trkpt lat="43.32931" lon="-4.65807">
        <ele>49.8</ele>
        <time>2026-08-24T18:36:55.559+02:00</time>
      </trkpt>
      <trkpt lat="43.32963" lon="-4.65859">
        <ele>51</ele>
        <time>2026-08-24T18:36:55.559+02:00</time>
      </trkpt>
      <trkpt lat="43.32974" lon="-4.65893">
        <ele>43.9</ele>
        <time>2026-08-24T18:36:55.559+02:00</time>
      </trkpt>
      <trkpt lat="43.32978" lon="-4.65928">
        <ele>49</ele>
        <time>2026-08-24T18:36:55.559+02:00</time>
      </trkpt>
      <trkpt lat="43.32974" lon="-4.65971">
        <ele>44.4</ele>
        <time>2026-08-24T18:36:55.559+02:00</time>
      </trkpt>
      <trkpt lat="43.32965" lon="-4.66022">
        <ele>48</ele>
        <time>2026-08-24T18:36:55.559+02:00</time>
      </trkpt>
      <trkpt lat="43.32948" lon="-4.66076">
        <ele>44.8</ele>
        <time>2026-08-24T18:36:55.559+02:00</time>
      </trkpt>
      <trkpt lat="43.32907" lon="-4.66159">
        <ele>49.9</ele>
        <time>2026-08-24T18:36:55.559+02:00</time>
      </trkpt>
      <trkpt lat="43.32896" lon="-4.66209">
        <ele>52.1</ele>
        <time>2026-08-24T18:36:55.559+02:00</time>
      </trkpt>
      <trkpt lat="43.32905" lon="-4.66322">
        <ele>56.4</ele>
        <time>2026-08-24T18:36:55.559+02:00</time>
      </trkpt>
      <trkpt lat="43.32926" lon="-4.66423">
        <ele>56.2</ele>
        <time>2026-08-24T18:36:55.559+02:00</time>
      </trkpt>
      <trkpt lat="43.32941" lon="-4.66535">
        <ele>48.8</ele>
        <time>2026-08-24T18:36:55.559+02:00</time>
      </trkpt>
      <trkpt lat="43.32941" lon="-4.66589">
        <ele>46</ele>
        <time>2026-08-24T18:36:55.559+02:00</time>
      </trkpt>
      <trkpt lat="43.32928" lon="-4.66629">
        <ele>45.4</ele>
        <time>2026-08-24T18:36:55.559+02:00</time>
      </trkpt>
      <trkpt lat="43.32873" lon="-4.66719">
        <ele>49.6</ele>
        <time>2026-08-24T18:36:55.559+02:00</time>
      </trkpt>
      <trkpt lat="43.32853" lon="-4.66765">
        <ele>48.7</ele>
        <time>2026-08-24T18:36:55.559+02:00</time>
      </trkpt>
      <trkpt lat="43.32832" lon="-4.66865">
        <ele>47.8</ele>
        <time>2026-08-24T18:36:55.559+02:00</time>
      </trkpt>
      <trkpt lat="43.32798" lon="-4.66996">
        <ele>51.8</ele>
        <time>2026-08-24T18:36:55.559+02:00</time>
      </trkpt>
      <trkpt lat="43.32774" lon="-4.67069">
        <ele>46.8</ele>
        <time>2026-08-24T18:36:55.559+02:00</time>
      </trkpt>
      <trkpt lat="43.32765" lon="-4.67121">
        <ele>49.8</ele>
        <time>2026-08-24T18:36:55.559+02:00</time>
      </trkpt>
      <trkpt lat="43.32755" lon="-4.67185">
        <ele>49.1</ele>
        <time>2026-08-24T18:36:55.559+02:00</time>
      </trkpt>
      <trkpt lat="43.32718" lon="-4.67301">
        <ele>48.6</ele>
        <time>2026-08-24T18:36:55.559+02:00</time>
      </trkpt>
      <trkpt lat="43.32628" lon="-4.67455">
        <ele>53.1</ele>
        <time>2026-08-24T18:36:55.559+02:00</time>
      </trkpt>
      <trkpt lat="43.32506" lon="-4.67582">
        <ele>50.9</ele>
        <time>2026-08-24T18:36:55.559+02:00</time>
      </trkpt>
      <trkpt lat="43.32478" lon="-4.67608">
        <ele>52.9</ele>
        <time>2026-08-24T18:36:55.559+02:00</time>
      </trkpt>
      <trkpt lat="43.32467" lon="-4.67642">
        <ele>51.9</ele>
        <time>2026-08-24T18:36:55.559+02:00</time>
      </trkpt>
      <trkpt lat="43.32471" lon="-4.67717">
        <ele>52.8</ele>
        <time>2026-08-24T18:36:55.559+02:00</time>
      </trkpt>
      <trkpt lat="43.32469" lon="-4.67769">
        <ele>55</ele>
        <time>2026-08-24T18:36:55.559+02:00</time>
      </trkpt>
      <trkpt lat="43.32454" lon="-4.67829">
        <ele>56.4</ele>
        <time>2026-08-24T18:36:55.559+02:00</time>
      </trkpt>
      <trkpt lat="43.32439" lon="-4.67863">
        <ele>52.6</ele>
        <time>2026-08-24T18:36:55.559+02:00</time>
      </trkpt>
      <trkpt lat="43.32422" lon="-4.67885">
        <ele>53.8</ele>
        <time>2026-08-24T18:36:55.559+02:00</time>
      </trkpt>
      <trkpt lat="43.32403" lon="-4.67893">
        <ele>53.7</ele>
        <time>2026-08-24T18:36:55.559+02:00</time>
      </trkpt>
      <trkpt lat="43.32366" lon="-4.67891">
        <ele>52</ele>
        <time>2026-08-24T18:36:55.559+02:00</time>
      </trkpt>
      <trkpt lat="43.32347" lon="-4.67878">
        <ele>52.5</ele>
        <time>2026-08-24T18:36:55.559+02:00</time>
      </trkpt>
      <trkpt lat="43.3233" lon="-4.67867">
        <ele>52.4</ele>
        <time>2026-08-24T18:36:55.559+02:00</time>
      </trkpt>
      <trkpt lat="43.3231" lon="-4.67855">
        <ele>54.5</ele>
        <time>2026-08-24T18:36:55.559+02:00</time>
      </trkpt>
      <trkpt lat="43.32207" lon="-4.67816">
        <ele>60.4</ele>
        <time>2026-08-24T18:36:55.559+02:00</time>
      </trkpt>
      <trkpt lat="43.32156" lon="-4.67818">
        <ele>63.4</ele>
        <time>2026-08-24T18:36:55.559+02:00</time>
      </trkpt>
      <trkpt lat="43.32102" lon="-4.67801">
        <ele>60.3</ele>
        <time>2026-08-24T18:36:55.559+02:00</time>
      </trkpt>
      <trkpt lat="43.32001" lon="-4.6779">
        <ele>63.4</ele>
        <time>2026-08-24T18:36:55.559+02:00</time>
      </trkpt>
      <trkpt lat="43.31907" lon="-4.67743">
        <ele>56.8</ele>
        <time>2026-08-24T18:36:55.559+02:00</time>
      </trkpt>
      <trkpt lat="43.3186" lon="-4.67756">
        <ele>56.4</ele>
        <time>2026-08-24T18:36:55.559+02:00</time>
      </trkpt>
      <trkpt lat="43.31796" lon="-4.67784">
        <ele>57.5</ele>
        <time>2026-08-24T18:36:55.559+02:00</time>
      </trkpt>
      <trkpt lat="43.31772" lon="-4.6779">
        <ele>57.9</ele>
        <time>2026-08-24T18:36:55.559+02:00</time>
      </trkpt>
      <trkpt lat="43.31746" lon="-4.67799">
        <ele>58.8</ele>
        <time>2026-08-24T18:36:55.559+02:00</time>
      </trkpt>
      <trkpt lat="43.31699" lon="-4.67816">
        <ele>61.2</ele>
        <time>2026-08-24T18:36:55.559+02:00</time>
      </trkpt>
      <trkpt lat="43.31671" lon="-4.6784">
        <ele>61.9</ele>
        <time>2026-08-24T18:36:55.559+02:00</time>
      </trkpt>
      <trkpt lat="43.31658" lon="-4.67861">
        <ele>62.4</ele>
        <time>2026-08-24T18:36:55.559+02:00</time>
      </trkpt>
      <trkpt lat="43.31626" lon="-4.6794">
        <ele>63.4</ele>
        <time>2026-08-24T18:36:55.559+02:00</time>
      </trkpt>
      <trkpt lat="43.31598" lon="-4.68009">
        <ele>64.7</ele>
        <time>2026-08-24T18:36:55.559+02:00</time>
      </trkpt>
      <trkpt lat="43.31585" lon="-4.68043">
        <ele>66.3</ele>
        <time>2026-08-24T18:36:55.559+02:00</time>
      </trkpt>
      <trkpt lat="43.31555" lon="-4.68129">
        <ele>69.5</ele>
        <time>2026-08-24T18:36:55.559+02:00</time>
      </trkpt>
      <trkpt lat="43.31547" lon="-4.68181">
        <ele>72.4</ele>
        <time>2026-08-24T18:36:55.559+02:00</time>
      </trkpt>
      <trkpt lat="43.31559" lon="-4.68286">
        <ele>72.1</ele>
        <time>2026-08-24T18:36:55.559+02:00</time>
      </trkpt>
      <trkpt lat="43.31555" lon="-4.68333">
        <ele>70.8</ele>
        <time>2026-08-24T18:36:55.559+02:00</time>
      </trkpt>
      <trkpt lat="43.31534" lon="-4.68419">
        <ele>71.5</ele>
        <time>2026-08-24T18:36:55.559+02:00</time>
      </trkpt>
      <trkpt lat="43.31514" lon="-4.68494">
        <ele>71.5</ele>
        <time>2026-08-24T18:36:55.559+02:00</time>
      </trkpt>
      <trkpt lat="43.3151" lon="-4.68548">
        <ele>73</ele>
        <time>2026-08-24T18:36:55.559+02:00</time>
      </trkpt>
      <trkpt lat="43.31521" lon="-4.68687">
        <ele>73.7</ele>
        <time>2026-08-24T18:36:55.559+02:00</time>
      </trkpt>
      <trkpt lat="43.31521" lon="-4.68749">
        <ele>72.6</ele>
        <time>2026-08-24T18:36:55.559+02:00</time>
      </trkpt>
      <trkpt lat="43.31523" lon="-4.68773">
        <ele>69.4</ele>
        <time>2026-08-24T18:36:55.559+02:00</time>
      </trkpt>
      <trkpt lat="43.31521" lon="-4.68857">
        <ele>74.1</ele>
        <time>2026-08-24T18:36:55.559+02:00</time>
      </trkpt>
      <trkpt lat="43.31514" lon="-4.68998">
        <ele>81.2</ele>
        <time>2026-08-24T18:36:55.559+02:00</time>
      </trkpt>
      <trkpt lat="43.31514" lon="-4.69056">
        <ele>82.9</ele>
        <time>2026-08-24T18:36:55.559+02:00</time>
      </trkpt>
      <trkpt lat="43.31517" lon="-4.69106">
        <ele>83</ele>
        <time>2026-08-24T18:36:55.559+02:00</time>
      </trkpt>
      <trkpt lat="43.31525" lon="-4.69153">
        <ele>82.3</ele>
        <time>2026-08-24T18:36:55.559+02:00</time>
      </trkpt>
      <trkpt lat="43.31536" lon="-4.692">
        <ele>88.6</ele>
        <time>2026-08-24T18:36:55.559+02:00</time>
      </trkpt>
      <trkpt lat="43.31555" lon="-4.69395">
        <ele>92.2</ele>
        <time>2026-08-24T18:36:55.559+02:00</time>
      </trkpt>
      <trkpt lat="43.31559" lon="-4.69528">
        <ele>97.5</ele>
        <time>2026-08-24T18:36:55.559+02:00</time>
      </trkpt>
      <trkpt lat="43.31577" lon="-4.6973">
        <ele>101.6</ele>
        <time>2026-08-24T18:36:55.559+02:00</time>
      </trkpt>
      <trkpt lat="43.31581" lon="-4.69779">
        <ele>98.3</ele>
        <time>2026-08-24T18:36:55.559+02:00</time>
      </trkpt>
      <trkpt lat="43.31583" lon="-4.69814">
        <ele>98.4</ele>
        <time>2026-08-24T18:36:55.559+02:00</time>
      </trkpt>
      <trkpt lat="43.31583" lon="-4.69872">
        <ele>97.4</ele>
        <time>2026-08-24T18:36:55.559+02:00</time>
      </trkpt>
      <trkpt lat="43.3157" lon="-4.6997">
        <ele>94.7</ele>
        <time>2026-08-24T18:36:55.559+02:00</time>
      </trkpt>
      <trkpt lat="43.31564" lon="-4.70075">
        <ele>94.6</ele>
        <time>2026-08-24T18:36:55.559+02:00</time>
      </trkpt>
      <trkpt lat="43.31566" lon="-4.7009">
        <ele>94.7</ele>
        <time>2026-08-24T18:36:55.559+02:00</time>
      </trkpt>
      <trkpt lat="43.31587" lon="-4.70148">
        <ele>91.4</ele>
        <time>2026-08-24T18:36:55.559+02:00</time>
      </trkpt>
      <trkpt lat="43.31615" lon="-4.70206">
        <ele>91.7</ele>
        <time>2026-08-24T18:36:55.559+02:00</time>
      </trkpt>
      <trkpt lat="43.3163" lon="-4.70247">
        <ele>91.5</ele>
        <time>2026-08-24T18:36:55.559+02:00</time>
      </trkpt>
      <trkpt lat="43.31669" lon="-4.70378">
        <ele>92.7</ele>
        <time>2026-08-24T18:36:55.559+02:00</time>
      </trkpt>
      <trkpt lat="43.31686" lon="-4.70447">
        <ele>91.5</ele>
        <time>2026-08-24T18:36:55.559+02:00</time>
      </trkpt>
      <trkpt lat="43.31697" lon="-4.7052">
        <ele>92.3</ele>
        <time>2026-08-24T18:36:55.559+02:00</time>
      </trkpt>
      <trkpt lat="43.31714" lon="-4.70578">
        <ele>92.4</ele>
        <time>2026-08-24T18:36:55.560+02:00</time>
      </trkpt>
      <trkpt lat="43.31735" lon="-4.70633">
        <ele>90.9</ele>
        <time>2026-08-24T18:36:55.560+02:00</time>
      </trkpt>
      <trkpt lat="43.31744" lon="-4.70674">
        <ele>89.4</ele>
        <time>2026-08-24T18:36:55.560+02:00</time>
      </trkpt>
      <trkpt lat="43.31757" lon="-4.70856">
        <ele>91</ele>
        <time>2026-08-24T18:36:55.560+02:00</time>
      </trkpt>
      <trkpt lat="43.31765" lon="-4.70889">
        <ele>91.2</ele>
        <time>2026-08-24T18:36:55.560+02:00</time>
      </trkpt>
      <trkpt lat="43.31776" lon="-4.70908">
        <ele>90.6</ele>
        <time>2026-08-24T18:36:55.560+02:00</time>
      </trkpt>
      <trkpt lat="43.31785" lon="-4.70919">
        <ele>91.1</ele>
        <time>2026-08-24T18:36:55.560+02:00</time>
      </trkpt>
      <trkpt lat="43.31806" lon="-4.70968">
        <ele>88.8</ele>
        <time>2026-08-24T18:36:55.560+02:00</time>
      </trkpt>
      <trkpt lat="43.31808" lon="-4.70981">
        <ele>88.8</ele>
        <time>2026-08-24T18:36:55.560+02:00</time>
      </trkpt>
      <trkpt lat="43.31808" lon="-4.71028">
        <ele>87.8</ele>
        <time>2026-08-24T18:36:55.560+02:00</time>
      </trkpt>
      <trkpt lat="43.318" lon="-4.71112">
        <ele>85.3</ele>
        <time>2026-08-24T18:36:55.560+02:00</time>
      </trkpt>
      <trkpt lat="43.31796" lon="-4.7117">
        <ele>85.4</ele>
        <time>2026-08-24T18:36:55.560+02:00</time>
      </trkpt>
      <trkpt lat="43.31783" lon="-4.71288">
        <ele>81.9</ele>
        <time>2026-08-24T18:36:55.560+02:00</time>
      </trkpt>
      <trkpt lat="43.31787" lon="-4.71309">
        <ele>82.9</ele>
        <time>2026-08-24T18:36:55.560+02:00</time>
      </trkpt>
      <trkpt lat="43.31798" lon="-4.71348">
        <ele>80.1</ele>
        <time>2026-08-24T18:36:55.560+02:00</time>
      </trkpt>
      <trkpt lat="43.31793" lon="-4.71371">
        <ele>78.2</ele>
        <time>2026-08-24T18:36:55.560+02:00</time>
      </trkpt>
      <trkpt lat="43.31778" lon="-4.71402">
        <ele>81.8</ele>
        <time>2026-08-24T18:36:55.560+02:00</time>
      </trkpt>
      <trkpt lat="43.31761" lon="-4.71425">
        <ele>82</ele>
        <time>2026-08-24T18:36:55.560+02:00</time>
      </trkpt>
      <trkpt lat="43.31738" lon="-4.71457">
        <ele>79.9</ele>
        <time>2026-08-24T18:36:55.560+02:00</time>
      </trkpt>
      <trkpt lat="43.31731" lon="-4.71468">
        <ele>80.9</ele>
        <time>2026-08-24T18:36:55.560+02:00</time>
      </trkpt>
      <trkpt lat="43.31705" lon="-4.71507">
        <ele>82</ele>
        <time>2026-08-24T18:36:55.560+02:00</time>
      </trkpt>
      <trkpt lat="43.31645" lon="-4.71659">
        <ele>84.5</ele>
        <time>2026-08-24T18:36:55.560+02:00</time>
      </trkpt>
      <trkpt lat="43.31609" lon="-4.71687">
        <ele>82.6</ele>
        <time>2026-08-24T18:36:55.560+02:00</time>
      </trkpt>
      <trkpt lat="43.31532" lon="-4.71719">
        <ele>82.6</ele>
        <time>2026-08-24T18:36:55.560+02:00</time>
      </trkpt>
      <trkpt lat="43.31497" lon="-4.71753">
        <ele>84.9</ele>
        <time>2026-08-24T18:36:55.560+02:00</time>
      </trkpt>
      <trkpt lat="43.31487" lon="-4.71777">
        <ele>87.4</ele>
        <time>2026-08-24T18:36:55.560+02:00</time>
      </trkpt>
      <trkpt lat="43.31478" lon="-4.7182">
        <ele>88.6</ele>
        <time>2026-08-24T18:36:55.560+02:00</time>
      </trkpt>
      <trkpt lat="43.31476" lon="-4.7191">
        <ele>89.8</ele>
        <time>2026-08-24T18:36:55.560+02:00</time>
      </trkpt>
      <trkpt lat="43.31469" lon="-4.71955">
        <ele>87.8</ele>
        <time>2026-08-24T18:36:55.560+02:00</time>
      </trkpt>
      <trkpt lat="43.31439" lon="-4.72052">
        <ele>86.9</ele>
        <time>2026-08-24T18:36:55.560+02:00</time>
      </trkpt>
      <trkpt lat="43.31414" lon="-4.7212">
        <ele>87.5</ele>
        <time>2026-08-24T18:36:55.560+02:00</time>
      </trkpt>
      <trkpt lat="43.31401" lon="-4.72172">
        <ele>88.6</ele>
        <time>2026-08-24T18:36:55.560+02:00</time>
      </trkpt>
      <trkpt lat="43.31388" lon="-4.72271">
        <ele>88.8</ele>
        <time>2026-08-24T18:36:55.560+02:00</time>
      </trkpt>
      <trkpt lat="43.31377" lon="-4.72335">
        <ele>91.6</ele>
        <time>2026-08-24T18:36:55.560+02:00</time>
      </trkpt>
      <trkpt lat="43.31351" lon="-4.72425">
        <ele>89.1</ele>
        <time>2026-08-24T18:36:55.560+02:00</time>
      </trkpt>
      <trkpt lat="43.31326" lon="-4.72519">
        <ele>87.1</ele>
        <time>2026-08-24T18:36:55.560+02:00</time>
      </trkpt>
      <trkpt lat="43.3127" lon="-4.72676">
        <ele>86.9</ele>
        <time>2026-08-24T18:36:55.560+02:00</time>
      </trkpt>
      <trkpt lat="43.3125" lon="-4.72738">
        <ele>85.8</ele>
        <time>2026-08-24T18:36:55.560+02:00</time>
      </trkpt>
      <trkpt lat="43.31212" lon="-4.72828">
        <ele>88.2</ele>
        <time>2026-08-24T18:36:55.560+02:00</time>
      </trkpt>
      <trkpt lat="43.31188" lon="-4.72873">
        <ele>86.4</ele>
        <time>2026-08-24T18:36:55.560+02:00</time>
      </trkpt>
      <trkpt lat="43.31143" lon="-4.72955">
        <ele>84.4</ele>
        <time>2026-08-24T18:36:55.560+02:00</time>
      </trkpt>
      <trkpt lat="43.31128" lon="-4.72994">
        <ele>86</ele>
        <time>2026-08-24T18:36:55.560+02:00</time>
      </trkpt>
      <trkpt lat="43.31113" lon="-4.73043">
        <ele>84.2</ele>
        <time>2026-08-24T18:36:55.560+02:00</time>
      </trkpt>
      <trkpt lat="43.31066" lon="-4.73131">
        <ele>86.5</ele>
        <time>2026-08-24T18:36:55.560+02:00</time>
      </trkpt>
      <trkpt lat="43.31023" lon="-4.73221">
        <ele>85.7</ele>
        <time>2026-08-24T18:36:55.560+02:00</time>
      </trkpt>
      <trkpt lat="43.30999" lon="-4.73245">
        <ele>80.3</ele>
        <time>2026-08-24T18:36:55.560+02:00</time>
      </trkpt>
      <trkpt lat="43.30963" lon="-4.73264">
        <ele>86.3</ele>
        <time>2026-08-24T18:36:55.560+02:00</time>
      </trkpt>
      <trkpt lat="43.30922" lon="-4.73305">
        <ele>84.6</ele>
        <time>2026-08-24T18:36:55.560+02:00</time>
      </trkpt>
      <trkpt lat="43.30871" lon="-4.73365">
        <ele>88.1</ele>
        <time>2026-08-24T18:36:55.560+02:00</time>
      </trkpt>
      <trkpt lat="43.30817" lon="-4.73436">
        <ele>89.6</ele>
        <time>2026-08-24T18:36:55.560+02:00</time>
      </trkpt>
      <trkpt lat="43.308" lon="-4.73466">
        <ele>91.1</ele>
        <time>2026-08-24T18:36:55.560+02:00</time>
      </trkpt>
      <trkpt lat="43.30766" lon="-4.73547">
        <ele>93.4</ele>
        <time>2026-08-24T18:36:55.560+02:00</time>
      </trkpt>
      <trkpt lat="43.30729" lon="-4.73644">
        <ele>90.1</ele>
        <time>2026-08-24T18:36:55.560+02:00</time>
      </trkpt>
      <trkpt lat="43.30712" lon="-4.73706">
        <ele>92.9</ele>
        <time>2026-08-24T18:36:55.560+02:00</time>
      </trkpt>
      <trkpt lat="43.30693" lon="-4.73753">
        <ele>91.3</ele>
        <time>2026-08-24T18:36:55.560+02:00</time>
      </trkpt>
      <trkpt lat="43.30678" lon="-4.7379">
        <ele>93.9</ele>
        <time>2026-08-24T18:36:55.560+02:00</time>
      </trkpt>
      <trkpt lat="43.30663" lon="-4.73815">
        <ele>90.6</ele>
        <time>2026-08-24T18:36:55.560+02:00</time>
      </trkpt>
      <trkpt lat="43.30592" lon="-4.73891">
        <ele>91.3</ele>
        <time>2026-08-24T18:36:55.560+02:00</time>
      </trkpt>
      <trkpt lat="43.30551" lon="-4.73972">
        <ele>95</ele>
        <time>2026-08-24T18:36:55.560+02:00</time>
      </trkpt>
      <trkpt lat="43.30532" lon="-4.74021">
        <ele>93.4</ele>
        <time>2026-08-24T18:36:55.560+02:00</time>
      </trkpt>
      <trkpt lat="43.30512" lon="-4.74122">
        <ele>101.2</ele>
        <time>2026-08-24T18:36:55.560+02:00</time>
      </trkpt>
      <trkpt lat="43.30495" lon="-4.74191">
        <ele>97.4</ele>
        <time>2026-08-24T18:36:55.560+02:00</time>
      </trkpt>
      <trkpt lat="43.3048" lon="-4.74273">
        <ele>97.2</ele>
        <time>2026-08-24T18:36:55.560+02:00</time>
      </trkpt>
      <trkpt lat="43.30442" lon="-4.74369">
        <ele>99.2</ele>
        <time>2026-08-24T18:36:55.560+02:00</time>
      </trkpt>
      <trkpt lat="43.3042" lon="-4.7441">
        <ele>99.9</ele>
        <time>2026-08-24T18:36:55.560+02:00</time>
      </trkpt>
      <trkpt lat="43.30373" lon="-4.74496">
        <ele>101</ele>
        <time>2026-08-24T18:36:55.560+02:00</time>
      </trkpt>
      <trkpt lat="43.30343" lon="-4.74528">
        <ele>101.2</ele>
        <time>2026-08-24T18:36:55.560+02:00</time>
      </trkpt>
      <trkpt lat="43.30278" lon="-4.74569">
        <ele>105.2</ele>
        <time>2026-08-24T18:36:55.560+02:00</time>
      </trkpt>
      <trkpt lat="43.30214" lon="-4.74586">
        <ele>110.2</ele>
        <time>2026-08-24T18:36:55.560+02:00</time>
      </trkpt>
      <trkpt lat="43.30156" lon="-4.74627">
        <ele>108.2</ele>
        <time>2026-08-24T18:36:55.560+02:00</time>
      </trkpt>
      <trkpt lat="43.30113" lon="-4.74697">
        <ele>109.1</ele>
        <time>2026-08-24T18:36:55.560+02:00</time>
      </trkpt>
      <trkpt lat="43.30077" lon="-4.74734">
        <ele>108.2</ele>
        <time>2026-08-24T18:36:55.560+02:00</time>
      </trkpt>
      <trkpt lat="43.30053" lon="-4.74755">
        <ele>110.6</ele>
        <time>2026-08-24T18:36:55.560+02:00</time>
      </trkpt>
      <trkpt lat="43.30027" lon="-4.74794">
        <ele>110.6</ele>
        <time>2026-08-24T18:36:55.560+02:00</time>
      </trkpt>
      <trkpt lat="43.29999" lon="-4.74835">
        <ele>112</ele>
        <time>2026-08-24T18:36:55.561+02:00</time>
      </trkpt>
      <trkpt lat="43.29918" lon="-4.74951">
        <ele>113.9</ele>
        <time>2026-08-24T18:36:55.561+02:00</time>
      </trkpt>
      <trkpt lat="43.29834" lon="-4.75142">
        <ele>118.4</ele>
        <time>2026-08-24T18:36:55.561+02:00</time>
      </trkpt>
      <trkpt lat="43.29802" lon="-4.7521">
        <ele>121.4</ele>
        <time>2026-08-24T18:36:55.561+02:00</time>
      </trkpt>
      <trkpt lat="43.29776" lon="-4.75253">
        <ele>121.1</ele>
        <time>2026-08-24T18:36:55.561+02:00</time>
      </trkpt>
      <trkpt lat="43.29736" lon="-4.7529">
        <ele>121.3</ele>
        <time>2026-08-24T18:36:55.561+02:00</time>
      </trkpt>
      <trkpt lat="43.29699" lon="-4.75339">
        <ele>115.1</ele>
        <time>2026-08-24T18:36:55.561+02:00</time>
      </trkpt>
      <trkpt lat="43.29673" lon="-4.75395">
        <ele>111.4</ele>
        <time>2026-08-24T18:36:55.561+02:00</time>
      </trkpt>
      <trkpt lat="43.29665" lon="-4.75468">
        <ele>112.2</ele>
        <time>2026-08-24T18:36:55.561+02:00</time>
      </trkpt>
      <trkpt lat="43.2966" lon="-4.75532">
        <ele>114.1</ele>
        <time>2026-08-24T18:36:55.561+02:00</time>
      </trkpt>
      <trkpt lat="43.29663" lon="-4.75579">
        <ele>112.5</ele>
        <time>2026-08-24T18:36:55.561+02:00</time>
      </trkpt>
      <trkpt lat="43.29671" lon="-4.75652">
        <ele>109</ele>
        <time>2026-08-24T18:36:55.561+02:00</time>
      </trkpt>
      <trkpt lat="43.2968" lon="-4.75693">
        <ele>109.9</ele>
        <time>2026-08-24T18:36:55.561+02:00</time>
      </trkpt>
      <trkpt lat="43.29686" lon="-4.75736">
        <ele>109.8</ele>
        <time>2026-08-24T18:36:55.561+02:00</time>
      </trkpt>
      <trkpt lat="43.29693" lon="-4.75828">
        <ele>107</ele>
        <time>2026-08-24T18:36:55.561+02:00</time>
      </trkpt>
      <trkpt lat="43.29691" lon="-4.75858">
        <ele>107.3</ele>
        <time>2026-08-24T18:36:55.561+02:00</time>
      </trkpt>
      <trkpt lat="43.29684" lon="-4.7589">
        <ele>108.2</ele>
        <time>2026-08-24T18:36:55.561+02:00</time>
      </trkpt>
      <trkpt lat="43.29648" lon="-4.75996">
        <ele>113.6</ele>
        <time>2026-08-24T18:36:55.561+02:00</time>
      </trkpt>
      <trkpt lat="43.29633" lon="-4.76062">
        <ele>110.1</ele>
        <time>2026-08-24T18:36:55.561+02:00</time>
      </trkpt>
      <trkpt lat="43.29626" lon="-4.76193">
        <ele>113.3</ele>
        <time>2026-08-24T18:36:55.561+02:00</time>
      </trkpt>
      <trkpt lat="43.29622" lon="-4.76234">
        <ele>114.5</ele>
        <time>2026-08-24T18:36:55.561+02:00</time>
      </trkpt>
      <trkpt lat="43.29603" lon="-4.76326">
        <ele>112.3</ele>
        <time>2026-08-24T18:36:55.561+02:00</time>
      </trkpt>
      <trkpt lat="43.29581" lon="-4.76433">
        <ele>109.9</ele>
        <time>2026-08-24T18:36:55.561+02:00</time>
      </trkpt>
      <trkpt lat="43.29583" lon="-4.76487">
        <ele>111.6</ele>
        <time>2026-08-24T18:36:55.561+02:00</time>
      </trkpt>
      <trkpt lat="43.29598" lon="-4.76545">
        <ele>115.2</ele>
        <time>2026-08-24T18:36:55.561+02:00</time>
      </trkpt>
      <trkpt lat="43.29607" lon="-4.76678">
        <ele>113.5</ele>
        <time>2026-08-24T18:36:55.561+02:00</time>
      </trkpt>
      <trkpt lat="43.29615" lon="-4.76775">
        <ele>115.2</ele>
        <time>2026-08-24T18:36:55.561+02:00</time>
      </trkpt>
      <trkpt lat="43.29626" lon="-4.76862">
        <ele>116.8</ele>
        <time>2026-08-24T18:36:55.561+02:00</time>
      </trkpt>
      <trkpt lat="43.29624" lon="-4.76916">
        <ele>116.7</ele>
        <time>2026-08-24T18:36:55.561+02:00</time>
      </trkpt>
      <trkpt lat="43.29607" lon="-4.77023">
        <ele>119.2</ele>
        <time>2026-08-24T18:36:55.561+02:00</time>
      </trkpt>
      <trkpt lat="43.29594" lon="-4.7718">
        <ele>126.1</ele>
        <time>2026-08-24T18:36:55.561+02:00</time>
      </trkpt>
      <trkpt lat="43.29596" lon="-4.77287">
        <ele>130.9</ele>
        <time>2026-08-24T18:36:55.561+02:00</time>
      </trkpt>
      <trkpt lat="43.296" lon="-4.77474">
        <ele>128.7</ele>
        <time>2026-08-24T18:36:55.561+02:00</time>
      </trkpt>
      <trkpt lat="43.29594" lon="-4.77528">
        <ele>133.5</ele>
        <time>2026-08-24T18:36:55.561+02:00</time>
      </trkpt>
      <trkpt lat="43.29596" lon="-4.77579">
        <ele>133.8</ele>
        <time>2026-08-24T18:36:55.561+02:00</time>
      </trkpt>
      <trkpt lat="43.2962" lon="-4.77648">
        <ele>127.3</ele>
        <time>2026-08-24T18:36:55.561+02:00</time>
      </trkpt>
      <trkpt lat="43.29628" lon="-4.77684">
        <ele>128.6</ele>
        <time>2026-08-24T18:36:55.561+02:00</time>
      </trkpt>
      <trkpt lat="43.29641" lon="-4.77783">
        <ele>125.2</ele>
        <time>2026-08-24T18:36:55.561+02:00</time>
      </trkpt>
      <trkpt lat="43.29652" lon="-4.7788">
        <ele>125.4</ele>
        <time>2026-08-24T18:36:55.561+02:00</time>
      </trkpt>
      <trkpt lat="43.29658" lon="-4.77972">
        <ele>125.5</ele>
        <time>2026-08-24T18:36:55.561+02:00</time>
      </trkpt>
      <trkpt lat="43.29667" lon="-4.78025">
        <ele>122.6</ele>
        <time>2026-08-24T18:36:55.561+02:00</time>
      </trkpt>
      <trkpt lat="43.29684" lon="-4.7809">
        <ele>121.1</ele>
        <time>2026-08-24T18:36:55.561+02:00</time>
      </trkpt>
      <trkpt lat="43.2971" lon="-4.78169">
        <ele>123.2</ele>
        <time>2026-08-24T18:36:55.561+02:00</time>
      </trkpt>
      <trkpt lat="43.29729" lon="-4.78249">
        <ele>123</ele>
        <time>2026-08-24T18:36:55.561+02:00</time>
      </trkpt>
      <trkpt lat="43.29746" lon="-4.78289">
        <ele>120.6</ele>
        <time>2026-08-24T18:36:55.561+02:00</time>
      </trkpt>
      <trkpt lat="43.29794" lon="-4.78377">
        <ele>123.1</ele>
        <time>2026-08-24T18:36:55.561+02:00</time>
      </trkpt>
      <trkpt lat="43.29862" lon="-4.78468">
        <ele>119.3</ele>
        <time>2026-08-24T18:36:55.561+02:00</time>
      </trkpt>
      <trkpt lat="43.29884" lon="-4.78508">
        <ele>122.1</ele>
        <time>2026-08-24T18:36:55.561+02:00</time>
      </trkpt>
      <trkpt lat="43.29905" lon="-4.78577">
        <ele>122.6</ele>
        <time>2026-08-24T18:36:55.561+02:00</time>
      </trkpt>
      <trkpt lat="43.29967" lon="-4.78706">
        <ele>125.6</ele>
        <time>2026-08-24T18:36:55.561+02:00</time>
      </trkpt>
      <trkpt lat="43.2998" lon="-4.78755">
        <ele>124</ele>
        <time>2026-08-24T18:36:55.561+02:00</time>
      </trkpt>
      <trkpt lat="43.29965" lon="-4.78875">
        <ele>126.9</ele>
        <time>2026-08-24T18:36:55.561+02:00</time>
      </trkpt>
      <trkpt lat="43.29957" lon="-4.78901">
        <ele>127.7</ele>
        <time>2026-08-24T18:36:55.561+02:00</time>
      </trkpt>
      <trkpt lat="43.29933" lon="-4.78942">
        <ele>126.4</ele>
        <time>2026-08-24T18:36:55.561+02:00</time>
      </trkpt>
      <trkpt lat="43.29916" lon="-4.7898">
        <ele>124.9</ele>
        <time>2026-08-24T18:36:55.561+02:00</time>
      </trkpt>
      <trkpt lat="43.29901" lon="-4.79058">
        <ele>128.7</ele>
        <time>2026-08-24T18:36:55.561+02:00</time>
      </trkpt>
      <trkpt lat="43.29892" lon="-4.79096">
        <ele>127.2</ele>
        <time>2026-08-24T18:36:55.561+02:00</time>
      </trkpt>
      <trkpt lat="43.29858" lon="-4.79225">
        <ele>126</ele>
        <time>2026-08-24T18:36:55.561+02:00</time>
      </trkpt>
      <trkpt lat="43.29839" lon="-4.79324">
        <ele>125.1</ele>
        <time>2026-08-24T18:36:55.561+02:00</time>
      </trkpt>
      <trkpt lat="43.29832" lon="-4.79358">
        <ele>125.1</ele>
        <time>2026-08-24T18:36:55.561+02:00</time>
      </trkpt>
      <trkpt lat="43.29811" lon="-4.79515">
        <ele>123.7</ele>
        <time>2026-08-24T18:36:55.561+02:00</time>
      </trkpt>
      <trkpt lat="43.29809" lon="-4.79553">
        <ele>124.3</ele>
        <time>2026-08-24T18:36:55.561+02:00</time>
      </trkpt>
      <trkpt lat="43.29809" lon="-4.79624">
        <ele>125.2</ele>
        <time>2026-08-24T18:36:55.561+02:00</time>
      </trkpt>
      <trkpt lat="43.29821" lon="-4.79843">
        <ele>130.5</ele>
        <time>2026-08-24T18:36:55.561+02:00</time>
      </trkpt>
      <trkpt lat="43.29828" lon="-4.79922">
        <ele>129</ele>
        <time>2026-08-24T18:36:55.561+02:00</time>
      </trkpt>
      <trkpt lat="43.29836" lon="-4.79978">
        <ele>129.3</ele>
        <time>2026-08-24T18:36:55.561+02:00</time>
      </trkpt>
      <trkpt lat="43.29851" lon="-4.80027">
        <ele>132.9</ele>
        <time>2026-08-24T18:36:55.561+02:00</time>
      </trkpt>
      <trkpt lat="43.29862" lon="-4.80064">
        <ele>128.4</ele>
        <time>2026-08-24T18:36:55.561+02:00</time>
      </trkpt>
      <trkpt lat="43.29894" lon="-4.80128">
        <ele>127.7</ele>
        <time>2026-08-24T18:36:55.561+02:00</time>
      </trkpt>
      <trkpt lat="43.29912" lon="-4.80161">
        <ele>129</ele>
        <time>2026-08-24T18:36:55.561+02:00</time>
      </trkpt>
      <trkpt lat="43.29957" lon="-4.80246">
        <ele>129.4</ele>
        <time>2026-08-24T18:36:55.561+02:00</time>
      </trkpt>
      <trkpt lat="43.29999" lon="-4.80328">
        <ele>130.8</ele>
        <time>2026-08-24T18:36:55.561+02:00</time>
      </trkpt>
      <trkpt lat="43.30008" lon="-4.80345">
        <ele>131.1</ele>
        <time>2026-08-24T18:36:55.561+02:00</time>
      </trkpt>
      <trkpt lat="43.30047" lon="-4.80424">
        <ele>133.9</ele>
        <time>2026-08-24T18:36:55.561+02:00</time>
      </trkpt>
      <trkpt lat="43.3007" lon="-4.80506">
        <ele>134.2</ele>
        <time>2026-08-24T18:36:55.561+02:00</time>
      </trkpt>
      <trkpt lat="43.30083" lon="-4.80596">
        <ele>132.6</ele>
        <time>2026-08-24T18:36:55.561+02:00</time>
      </trkpt>
      <trkpt lat="43.30085" lon="-4.80699">
        <ele>134.3</ele>
        <time>2026-08-24T18:36:55.561+02:00</time>
      </trkpt>
      <trkpt lat="43.30066" lon="-4.80864">
        <ele>131.7</ele>
        <time>2026-08-24T18:36:55.561+02:00</time>
      </trkpt>
      <trkpt lat="43.30068" lon="-4.80894">
        <ele>131.5</ele>
        <time>2026-08-24T18:36:55.561+02:00</time>
      </trkpt>
      <trkpt lat="43.30083" lon="-4.80907">
        <ele>131</ele>
        <time>2026-08-24T18:36:55.561+02:00</time>
      </trkpt>
      <trkpt lat="43.30113" lon="-4.80909">
        <ele>129.9</ele>
        <time>2026-08-24T18:36:55.561+02:00</time>
      </trkpt>
      <trkpt lat="43.30141" lon="-4.80918">
        <ele>134</ele>
        <time>2026-08-24T18:36:55.561+02:00</time>
      </trkpt>
      <trkpt lat="43.30152" lon="-4.80944">
        <ele>133.5</ele>
        <time>2026-08-24T18:36:55.561+02:00</time>
      </trkpt>
      <trkpt lat="43.30158" lon="-4.8107">
        <ele>133.2</ele>
        <time>2026-08-24T18:36:55.561+02:00</time>
      </trkpt>
      <trkpt lat="43.3016" lon="-4.81107">
        <ele>134.3</ele>
        <time>2026-08-24T18:36:55.561+02:00</time>
      </trkpt>
      <trkpt lat="43.30171" lon="-4.81287">
        <ele>137</ele>
        <time>2026-08-24T18:36:55.561+02:00</time>
      </trkpt>
      <trkpt lat="43.30171" lon="-4.813">
        <ele>137</ele>
        <time>2026-08-24T18:36:55.561+02:00</time>
      </trkpt>
      <trkpt lat="43.30173" lon="-4.81341">
        <ele>137.4</ele>
        <time>2026-08-24T18:36:55.561+02:00</time>
      </trkpt>
      <trkpt lat="43.30175" lon="-4.81366">
        <ele>138</ele>
        <time>2026-08-24T18:36:55.561+02:00</time>
      </trkpt>
      <trkpt lat="43.30178" lon="-4.81414">
        <ele>138.9</ele>
        <time>2026-08-24T18:36:55.561+02:00</time>
      </trkpt>
      <trkpt lat="43.30184" lon="-4.8153">
        <ele>141.2</ele>
        <time>2026-08-24T18:36:55.561+02:00</time>
      </trkpt>
      <trkpt lat="43.30195" lon="-4.8156">
        <ele>140.9</ele>
        <time>2026-08-24T18:36:55.561+02:00</time>
      </trkpt>
      <trkpt lat="43.30203" lon="-4.81566">
        <ele>141.3</ele>
        <time>2026-08-24T18:36:55.561+02:00</time>
      </trkpt>
      <trkpt lat="43.30242" lon="-4.81585">
        <ele>141.4</ele>
        <time>2026-08-24T18:36:55.561+02:00</time>
      </trkpt>
      <trkpt lat="43.30253" lon="-4.81596">
        <ele>140.4</ele>
        <time>2026-08-24T18:36:55.561+02:00</time>
      </trkpt>
      <trkpt lat="43.30283" lon="-4.81725">
        <ele>139.2</ele>
        <time>2026-08-24T18:36:55.561+02:00</time>
      </trkpt>
      <trkpt lat="43.30289" lon="-4.81753">
        <ele>138.7</ele>
        <time>2026-08-24T18:36:55.561+02:00</time>
      </trkpt>
      <trkpt lat="43.30292" lon="-4.81769">
        <ele>139.4</ele>
        <time>2026-08-24T18:36:55.561+02:00</time>
      </trkpt>
      <trkpt lat="43.30292" lon="-4.81769">
        <ele>139.4</ele>
        <time>2026-08-24T18:36:55.561+02:00</time>
      </trkpt>
    </trkseg>
  </trk>
</gpx>